<?xml version="1.0" encoding="UTF-8" standalone="no" ?>
<gpx xmlns="http://www.topografix.com/GPX/1/1" xmlns:xsi="http://www.w3.org/2001/XMLSchema-instance" xsi:schemaLocation="http://www.topografix.com/GPX/1/1 http://www.topografix.com/GPX/1/1/gpx.xsd" version="1.1" creator="VisuGPX - https://www.visugpx.com">
  <metadata>
    <name>Imilchil Midelt</name>
    <desc><![CDATA[Imilchil - midelt par le cirque de Jaffar]]></desc>
  </metadata>
  <trk>
    <name><![CDATA[imilchil_ midelt_171]]></name>
    <trkseg>
      <trkpt lat="32.15606" lon="-5.63047">
        <ele>2160</ele>
        <time>2010-08-05T02:40:55Z</time>
      </trkpt>
      <trkpt lat="32.15577" lon="-5.63106">
        <ele>2162</ele>
        <time>2010-08-05T02:40:55Z</time>
      </trkpt>
      <trkpt lat="32.15786" lon="-5.63103">
        <ele>2161</ele>
        <time>2010-08-05T02:40:55Z</time>
      </trkpt>
      <trkpt lat="32.16014" lon="-5.63002">
        <ele>2164</ele>
        <time>2010-08-05T02:40:55Z</time>
      </trkpt>
      <trkpt lat="32.16358" lon="-5.62988">
        <ele>2169</ele>
        <time>2010-08-05T02:40:55Z</time>
      </trkpt>
      <trkpt lat="32.16015" lon="-5.63002">
        <ele>2164</ele>
        <time>2010-08-05T02:40:55Z</time>
      </trkpt>
      <trkpt lat="32.1577" lon="-5.63107">
        <ele>2161</ele>
        <time>2010-08-05T02:40:55Z</time>
      </trkpt>
      <trkpt lat="32.15527" lon="-5.63108">
        <ele>2159</ele>
        <time>2010-08-05T02:40:55Z</time>
      </trkpt>
      <trkpt lat="32.1549" lon="-5.62855">
        <ele>2147</ele>
        <time>2010-08-05T02:40:55Z</time>
      </trkpt>
      <trkpt lat="32.15778" lon="-5.61855">
        <ele>2152</ele>
        <time>2010-08-05T02:40:55Z</time>
      </trkpt>
      <trkpt lat="32.15974" lon="-5.61855">
        <ele>2157</ele>
        <time>2010-08-05T02:40:55Z</time>
      </trkpt>
      <trkpt lat="32.16217" lon="-5.61686">
        <ele>2170</ele>
        <time>2010-08-05T02:40:55Z</time>
      </trkpt>
      <trkpt lat="32.16476" lon="-5.61052">
        <ele>2180</ele>
        <time>2010-08-05T02:40:55Z</time>
      </trkpt>
      <trkpt lat="32.16634" lon="-5.60895">
        <ele>2174</ele>
        <time>2010-08-05T02:40:55Z</time>
      </trkpt>
      <trkpt lat="32.16623" lon="-5.60786">
        <ele>2169</ele>
        <time>2010-08-05T02:40:55Z</time>
      </trkpt>
      <trkpt lat="32.16691" lon="-5.60648">
        <ele>2171</ele>
        <time>2010-08-05T02:40:55Z</time>
      </trkpt>
      <trkpt lat="32.16639" lon="-5.60343">
        <ele>2163</ele>
        <time>2010-08-05T02:40:55Z</time>
      </trkpt>
      <trkpt lat="32.16721" lon="-5.59976">
        <ele>2168</ele>
        <time>2010-08-05T02:40:55Z</time>
      </trkpt>
      <trkpt lat="32.1663" lon="-5.5969">
        <ele>2162</ele>
        <time>2010-08-05T02:40:55Z</time>
      </trkpt>
      <trkpt lat="32.16363" lon="-5.59657">
        <ele>2176</ele>
        <time>2010-08-05T02:40:55Z</time>
      </trkpt>
      <trkpt lat="32.16208" lon="-5.59847">
        <ele>2183</ele>
        <time>2010-08-05T02:40:55Z</time>
      </trkpt>
      <trkpt lat="32.16021" lon="-5.60244">
        <ele>2171</ele>
        <time>2010-08-05T02:40:55Z</time>
      </trkpt>
      <trkpt lat="32.15964" lon="-5.60307">
        <ele>2164</ele>
        <time>2010-08-05T02:40:55Z</time>
      </trkpt>
      <trkpt lat="32.15913" lon="-5.60291">
        <ele>2164</ele>
        <time>2010-08-05T02:40:55Z</time>
      </trkpt>
      <trkpt lat="32.15882" lon="-5.60208">
        <ele>2173</ele>
        <time>2010-08-05T02:40:55Z</time>
      </trkpt>
      <trkpt lat="32.15924" lon="-5.59988">
        <ele>2173</ele>
        <time>2010-08-05T02:40:55Z</time>
      </trkpt>
      <trkpt lat="32.15868" lon="-5.59921">
        <ele>2167</ele>
        <time>2010-08-05T02:40:55Z</time>
      </trkpt>
      <trkpt lat="32.1565" lon="-5.59846">
        <ele>2196</ele>
        <time>2010-08-05T02:40:55Z</time>
      </trkpt>
      <trkpt lat="32.15515" lon="-5.59846">
        <ele>2185</ele>
        <time>2010-08-05T02:40:55Z</time>
      </trkpt>
      <trkpt lat="32.15548" lon="-5.59579">
        <ele>2191</ele>
        <time>2010-08-05T02:40:55Z</time>
      </trkpt>
      <trkpt lat="32.15432" lon="-5.59474">
        <ele>2174</ele>
        <time>2010-08-05T02:40:55Z</time>
      </trkpt>
      <trkpt lat="32.15325" lon="-5.59054">
        <ele>2202</ele>
        <time>2010-08-05T02:40:55Z</time>
      </trkpt>
      <trkpt lat="32.15253" lon="-5.58951">
        <ele>2173</ele>
        <time>2010-08-05T02:40:55Z</time>
      </trkpt>
      <trkpt lat="32.15085" lon="-5.58863">
        <ele>2195</ele>
        <time>2010-08-05T02:40:55Z</time>
      </trkpt>
      <trkpt lat="32.14957" lon="-5.58672">
        <ele>2192</ele>
        <time>2010-08-05T02:40:55Z</time>
      </trkpt>
      <trkpt lat="32.14925" lon="-5.58429">
        <ele>2196</ele>
        <time>2010-08-05T02:40:55Z</time>
      </trkpt>
      <trkpt lat="32.15077" lon="-5.58173">
        <ele>2192</ele>
        <time>2010-08-05T02:40:55Z</time>
      </trkpt>
      <trkpt lat="32.15112" lon="-5.57954">
        <ele>2195</ele>
        <time>2010-08-05T02:40:55Z</time>
      </trkpt>
      <trkpt lat="32.1529" lon="-5.57667">
        <ele>2191</ele>
        <time>2010-08-05T02:40:55Z</time>
      </trkpt>
      <trkpt lat="32.15224" lon="-5.57432">
        <ele>2200</ele>
        <time>2010-08-05T02:40:55Z</time>
      </trkpt>
      <trkpt lat="32.15399" lon="-5.57356">
        <ele>2194</ele>
        <time>2010-08-05T02:40:55Z</time>
      </trkpt>
      <trkpt lat="32.15439" lon="-5.57278">
        <ele>2196</ele>
        <time>2010-08-05T02:40:55Z</time>
      </trkpt>
      <trkpt lat="32.1551" lon="-5.57101">
        <ele>2200</ele>
        <time>2010-08-05T02:40:55Z</time>
      </trkpt>
      <trkpt lat="32.1552" lon="-5.57015">
        <ele>2196</ele>
        <time>2010-08-05T02:40:55Z</time>
      </trkpt>
      <trkpt lat="32.1542" lon="-5.56828">
        <ele>2208</ele>
        <time>2010-08-05T02:40:55Z</time>
      </trkpt>
      <trkpt lat="32.15409" lon="-5.56693">
        <ele>2213</ele>
        <time>2010-08-05T02:40:55Z</time>
      </trkpt>
      <trkpt lat="32.15571" lon="-5.56673">
        <ele>2198</ele>
        <time>2010-08-05T02:40:55Z</time>
      </trkpt>
      <trkpt lat="32.15653" lon="-5.56478">
        <ele>2206</ele>
        <time>2010-08-05T02:40:55Z</time>
      </trkpt>
      <trkpt lat="32.15681" lon="-5.56221">
        <ele>2215</ele>
        <time>2010-08-05T02:40:55Z</time>
      </trkpt>
      <trkpt lat="32.15855" lon="-5.56125">
        <ele>2224</ele>
        <time>2010-08-05T02:40:55Z</time>
      </trkpt>
      <trkpt lat="32.15944" lon="-5.55974">
        <ele>2230</ele>
        <time>2010-08-05T02:40:55Z</time>
      </trkpt>
      <trkpt lat="32.1592" lon="-5.55772">
        <ele>2222</ele>
        <time>2010-08-05T02:40:55Z</time>
      </trkpt>
      <trkpt lat="32.15992" lon="-5.55557">
        <ele>2229</ele>
        <time>2010-08-05T02:40:55Z</time>
      </trkpt>
      <trkpt lat="32.15972" lon="-5.55386">
        <ele>2230</ele>
        <time>2010-08-05T02:40:55Z</time>
      </trkpt>
      <trkpt lat="32.16039" lon="-5.55203">
        <ele>2232</ele>
        <time>2010-08-05T02:40:55Z</time>
      </trkpt>
      <trkpt lat="32.16003" lon="-5.55055">
        <ele>2233</ele>
        <time>2010-08-05T02:40:55Z</time>
      </trkpt>
      <trkpt lat="32.16152" lon="-5.54741">
        <ele>2247</ele>
        <time>2010-08-05T02:40:55Z</time>
      </trkpt>
      <trkpt lat="32.16003" lon="-5.54">
        <ele>2247</ele>
        <time>2010-08-05T02:40:55Z</time>
      </trkpt>
      <trkpt lat="32.16017" lon="-5.53742">
        <ele>2251</ele>
        <time>2010-08-05T02:40:55Z</time>
      </trkpt>
      <trkpt lat="32.16197" lon="-5.53191">
        <ele>2273</ele>
        <time>2010-08-05T02:40:55Z</time>
      </trkpt>
      <trkpt lat="32.16225" lon="-5.52926">
        <ele>2274</ele>
        <time>2010-08-05T02:40:55Z</time>
      </trkpt>
      <trkpt lat="32.16511" lon="-5.52109">
        <ele>2281</ele>
        <time>2010-08-05T02:40:55Z</time>
      </trkpt>
      <trkpt lat="32.16675" lon="-5.51957">
        <ele>2276</ele>
        <time>2010-08-05T02:40:55Z</time>
      </trkpt>
      <trkpt lat="32.16825" lon="-5.51393">
        <ele>2290</ele>
        <time>2010-08-05T02:40:55Z</time>
      </trkpt>
      <trkpt lat="32.17075" lon="-5.51192">
        <ele>2291</ele>
        <time>2010-08-05T02:40:55Z</time>
      </trkpt>
      <trkpt lat="32.1716" lon="-5.50555">
        <ele>2306</ele>
        <time>2010-08-05T02:40:55Z</time>
      </trkpt>
      <trkpt lat="32.17268" lon="-5.50425">
        <ele>2305</ele>
        <time>2010-08-05T02:40:55Z</time>
      </trkpt>
      <trkpt lat="32.17286" lon="-5.49861">
        <ele>2311</ele>
        <time>2010-08-05T02:40:55Z</time>
      </trkpt>
      <trkpt lat="32.17492" lon="-5.49424">
        <ele>2320</ele>
        <time>2010-08-05T02:40:55Z</time>
      </trkpt>
      <trkpt lat="32.17437" lon="-5.4917">
        <ele>2317</ele>
        <time>2010-08-05T02:40:55Z</time>
      </trkpt>
      <trkpt lat="32.17474" lon="-5.48643">
        <ele>2327</ele>
        <time>2010-08-05T02:40:55Z</time>
      </trkpt>
      <trkpt lat="32.17619" lon="-5.48155">
        <ele>2340</ele>
        <time>2010-08-05T02:40:55Z</time>
      </trkpt>
      <trkpt lat="32.17628" lon="-5.47918">
        <ele>2340</ele>
        <time>2010-08-05T02:40:55Z</time>
      </trkpt>
      <trkpt lat="32.17774" lon="-5.4767">
        <ele>2354</ele>
        <time>2010-08-05T02:40:55Z</time>
      </trkpt>
      <trkpt lat="32.17686" lon="-5.47389">
        <ele>2354</ele>
        <time>2010-08-05T02:40:55Z</time>
      </trkpt>
      <trkpt lat="32.17717" lon="-5.4727">
        <ele>2355</ele>
        <time>2010-08-05T02:40:55Z</time>
      </trkpt>
      <trkpt lat="32.17843" lon="-5.47091">
        <ele>2359</ele>
        <time>2010-08-05T02:40:55Z</time>
      </trkpt>
      <trkpt lat="32.17999" lon="-5.47076">
        <ele>2369</ele>
        <time>2010-08-05T02:40:55Z</time>
      </trkpt>
      <trkpt lat="32.17927" lon="-5.46989">
        <ele>2366</ele>
        <time>2010-08-05T02:40:55Z</time>
      </trkpt>
      <trkpt lat="32.17952" lon="-5.46735">
        <ele>2373</ele>
        <time>2010-08-05T02:40:55Z</time>
      </trkpt>
      <trkpt lat="32.18018" lon="-5.46709">
        <ele>2378</ele>
        <time>2010-08-05T02:40:55Z</time>
      </trkpt>
      <trkpt lat="32.18077" lon="-5.46889">
        <ele>2387</ele>
        <time>2010-08-05T02:40:55Z</time>
      </trkpt>
      <trkpt lat="32.18217" lon="-5.47005">
        <ele>2396</ele>
        <time>2010-08-05T02:40:55Z</time>
      </trkpt>
      <trkpt lat="32.18387" lon="-5.47006">
        <ele>2403</ele>
        <time>2010-08-05T02:40:55Z</time>
      </trkpt>
      <trkpt lat="32.18423" lon="-5.46952">
        <ele>2397</ele>
        <time>2010-08-05T02:40:55Z</time>
      </trkpt>
      <trkpt lat="32.18596" lon="-5.47076">
        <ele>2419</ele>
        <time>2010-08-05T02:40:55Z</time>
      </trkpt>
      <trkpt lat="32.18851" lon="-5.46889">
        <ele>2443</ele>
        <time>2010-08-05T02:40:55Z</time>
      </trkpt>
      <trkpt lat="32.18772" lon="-5.46809">
        <ele>2426</ele>
        <time>2010-08-05T02:40:55Z</time>
      </trkpt>
      <trkpt lat="32.18773" lon="-5.46559">
        <ele>2445</ele>
        <time>2010-08-05T02:40:55Z</time>
      </trkpt>
      <trkpt lat="32.18821" lon="-5.46605">
        <ele>2459</ele>
        <time>2010-08-05T02:40:55Z</time>
      </trkpt>
      <trkpt lat="32.19035" lon="-5.46499">
        <ele>2472</ele>
        <time>2010-08-05T02:40:55Z</time>
      </trkpt>
      <trkpt lat="32.19468" lon="-5.46441">
        <ele>2520</ele>
        <time>2010-08-05T02:40:55Z</time>
      </trkpt>
      <trkpt lat="32.19635" lon="-5.46205">
        <ele>2542</ele>
        <time>2010-08-05T02:40:55Z</time>
      </trkpt>
      <trkpt lat="32.2004" lon="-5.45908">
        <ele>2579</ele>
        <time>2010-08-05T02:40:55Z</time>
      </trkpt>
      <trkpt lat="32.20127" lon="-5.45907">
        <ele>2577</ele>
        <time>2010-08-05T02:40:55Z</time>
      </trkpt>
      <trkpt lat="32.20214" lon="-5.45995">
        <ele>2587</ele>
        <time>2010-08-05T02:40:55Z</time>
      </trkpt>
      <trkpt lat="32.20407" lon="-5.45972">
        <ele>2596</ele>
        <time>2010-08-05T02:40:55Z</time>
      </trkpt>
      <trkpt lat="32.20374" lon="-5.45859">
        <ele>2596</ele>
        <time>2010-08-05T02:40:55Z</time>
      </trkpt>
      <trkpt lat="32.20691" lon="-5.45665">
        <ele>2636</ele>
        <time>2010-08-05T02:40:55Z</time>
      </trkpt>
      <trkpt lat="32.20864" lon="-5.45355">
        <ele>2635</ele>
        <time>2010-08-05T02:40:55Z</time>
      </trkpt>
      <trkpt lat="32.20914" lon="-5.45385">
        <ele>2625</ele>
        <time>2010-08-05T02:40:55Z</time>
      </trkpt>
      <trkpt lat="32.21015" lon="-5.45662">
        <ele>2618</ele>
        <time>2010-08-05T02:40:55Z</time>
      </trkpt>
      <trkpt lat="32.21071" lon="-5.45712">
        <ele>2620</ele>
        <time>2010-08-05T02:40:55Z</time>
      </trkpt>
      <trkpt lat="32.21196" lon="-5.4566">
        <ele>2586</ele>
        <time>2010-08-05T02:40:55Z</time>
      </trkpt>
      <trkpt lat="32.21253" lon="-5.45693">
        <ele>2580</ele>
        <time>2010-08-05T02:40:55Z</time>
      </trkpt>
      <trkpt lat="32.21449" lon="-5.45976">
        <ele>2577</ele>
        <time>2010-08-05T02:40:55Z</time>
      </trkpt>
      <trkpt lat="32.21501" lon="-5.45819">
        <ele>2542</ele>
        <time>2010-08-05T02:40:55Z</time>
      </trkpt>
      <trkpt lat="32.21573" lon="-5.45759">
        <ele>2547</ele>
        <time>2010-08-05T02:40:55Z</time>
      </trkpt>
      <trkpt lat="32.21566" lon="-5.4543">
        <ele>2506</ele>
        <time>2010-08-05T02:40:55Z</time>
      </trkpt>
      <trkpt lat="32.2163" lon="-5.45416">
        <ele>2512</ele>
        <time>2010-08-05T02:40:55Z</time>
      </trkpt>
      <trkpt lat="32.21711" lon="-5.45297">
        <ele>2503</ele>
        <time>2010-08-05T02:40:55Z</time>
      </trkpt>
      <trkpt lat="32.21684" lon="-5.45032">
        <ele>2476</ele>
        <time>2010-08-05T02:40:55Z</time>
      </trkpt>
      <trkpt lat="32.21843" lon="-5.44943">
        <ele>2473</ele>
        <time>2010-08-05T02:40:55Z</time>
      </trkpt>
      <trkpt lat="32.21899" lon="-5.44802">
        <ele>2463</ele>
        <time>2010-08-05T02:40:55Z</time>
      </trkpt>
      <trkpt lat="32.21895" lon="-5.44546">
        <ele>2441</ele>
        <time>2010-08-05T02:40:55Z</time>
      </trkpt>
      <trkpt lat="32.21821" lon="-5.44496">
        <ele>2430</ele>
        <time>2010-08-05T02:40:55Z</time>
      </trkpt>
      <trkpt lat="32.21817" lon="-5.44347">
        <ele>2422</ele>
        <time>2010-08-05T02:40:55Z</time>
      </trkpt>
      <trkpt lat="32.21762" lon="-5.44286">
        <ele>2416</ele>
        <time>2010-08-05T02:40:55Z</time>
      </trkpt>
      <trkpt lat="32.21822" lon="-5.43943">
        <ele>2396</ele>
        <time>2010-08-05T02:40:55Z</time>
      </trkpt>
      <trkpt lat="32.22029" lon="-5.43653">
        <ele>2374</ele>
        <time>2010-08-05T02:40:55Z</time>
      </trkpt>
      <trkpt lat="32.22191" lon="-5.43709">
        <ele>2402</ele>
        <time>2010-08-05T02:40:55Z</time>
      </trkpt>
      <trkpt lat="32.2222" lon="-5.43579">
        <ele>2376</ele>
        <time>2010-08-05T02:40:55Z</time>
      </trkpt>
      <trkpt lat="32.22341" lon="-5.43526">
        <ele>2372</ele>
        <time>2010-08-05T02:40:55Z</time>
      </trkpt>
      <trkpt lat="32.2238" lon="-5.43459">
        <ele>2357</ele>
        <time>2010-08-05T02:40:55Z</time>
      </trkpt>
      <trkpt lat="32.22626" lon="-5.43544">
        <ele>2342</ele>
        <time>2010-08-05T02:40:55Z</time>
      </trkpt>
      <trkpt lat="32.22715" lon="-5.43364">
        <ele>2326</ele>
        <time>2010-08-05T02:40:55Z</time>
      </trkpt>
      <trkpt lat="32.22865" lon="-5.4322">
        <ele>2306</ele>
        <time>2010-08-05T02:40:55Z</time>
      </trkpt>
      <trkpt lat="32.23023" lon="-5.43219">
        <ele>2286</ele>
        <time>2010-08-05T02:40:55Z</time>
      </trkpt>
      <trkpt lat="32.23206" lon="-5.43327">
        <ele>2303</ele>
        <time>2010-08-05T02:40:55Z</time>
      </trkpt>
      <trkpt lat="32.23254" lon="-5.43259">
        <ele>2284</ele>
        <time>2010-08-05T02:40:55Z</time>
      </trkpt>
      <trkpt lat="32.23301" lon="-5.4343">
        <ele>2309</ele>
        <time>2010-08-05T02:40:55Z</time>
      </trkpt>
      <trkpt lat="32.23384" lon="-5.43393">
        <ele>2308</ele>
        <time>2010-08-05T02:40:55Z</time>
      </trkpt>
      <trkpt lat="32.23455" lon="-5.43439">
        <ele>2320</ele>
        <time>2010-08-05T02:40:55Z</time>
      </trkpt>
      <trkpt lat="32.23931" lon="-5.43176">
        <ele>2245</ele>
        <time>2010-08-05T02:40:55Z</time>
      </trkpt>
      <trkpt lat="32.24084" lon="-5.43276">
        <ele>2252</ele>
        <time>2010-08-05T02:40:55Z</time>
      </trkpt>
      <trkpt lat="32.2439" lon="-5.43165">
        <ele>2204</ele>
        <time>2010-08-05T02:40:55Z</time>
      </trkpt>
      <trkpt lat="32.24441" lon="-5.43196">
        <ele>2191</ele>
        <time>2010-08-05T02:40:55Z</time>
      </trkpt>
      <trkpt lat="32.24476" lon="-5.43328">
        <ele>2214</ele>
        <time>2010-08-05T02:40:55Z</time>
      </trkpt>
      <trkpt lat="32.24619" lon="-5.43467">
        <ele>2192</ele>
        <time>2010-08-05T02:40:55Z</time>
      </trkpt>
      <trkpt lat="32.24835" lon="-5.43578">
        <ele>2165</ele>
        <time>2010-08-05T02:40:55Z</time>
      </trkpt>
      <trkpt lat="32.25049" lon="-5.43558">
        <ele>2148</ele>
        <time>2010-08-05T02:40:55Z</time>
      </trkpt>
      <trkpt lat="32.25194" lon="-5.437">
        <ele>2179</ele>
        <time>2010-08-05T02:40:55Z</time>
      </trkpt>
      <trkpt lat="32.2531" lon="-5.43662">
        <ele>2156</ele>
        <time>2010-08-05T02:40:55Z</time>
      </trkpt>
      <trkpt lat="32.25414" lon="-5.43459">
        <ele>2142</ele>
        <time>2010-08-05T02:40:55Z</time>
      </trkpt>
      <trkpt lat="32.25529" lon="-5.43385">
        <ele>2139</ele>
        <time>2010-08-05T02:40:55Z</time>
      </trkpt>
      <trkpt lat="32.25569" lon="-5.4324">
        <ele>2132</ele>
        <time>2010-08-05T02:40:55Z</time>
      </trkpt>
      <trkpt lat="32.25868" lon="-5.43149">
        <ele>2130</ele>
        <time>2010-08-05T02:40:55Z</time>
      </trkpt>
      <trkpt lat="32.2603" lon="-5.42901">
        <ele>2104</ele>
        <time>2010-08-05T02:40:55Z</time>
      </trkpt>
      <trkpt lat="32.26358" lon="-5.42637">
        <ele>2090</ele>
        <time>2010-08-05T02:40:55Z</time>
      </trkpt>
      <trkpt lat="32.26425" lon="-5.42666">
        <ele>2097</ele>
        <time>2010-08-05T02:40:55Z</time>
      </trkpt>
      <trkpt lat="32.26558" lon="-5.42562">
        <ele>2096</ele>
        <time>2010-08-05T02:40:55Z</time>
      </trkpt>
      <trkpt lat="32.26602" lon="-5.42456">
        <ele>2084</ele>
        <time>2010-08-05T02:40:55Z</time>
      </trkpt>
      <trkpt lat="32.26797" lon="-5.4227">
        <ele>2067</ele>
        <time>2010-08-05T02:40:55Z</time>
      </trkpt>
      <trkpt lat="32.26882" lon="-5.41991">
        <ele>2037</ele>
        <time>2010-08-05T02:40:55Z</time>
      </trkpt>
      <trkpt lat="32.27012" lon="-5.41793">
        <ele>2036</ele>
        <time>2010-08-05T02:40:55Z</time>
      </trkpt>
      <trkpt lat="32.27046" lon="-5.41471">
        <ele>2022</ele>
        <time>2010-08-05T02:40:55Z</time>
      </trkpt>
      <trkpt lat="32.27001" lon="-5.414">
        <ele>2021</ele>
        <time>2010-08-05T02:40:55Z</time>
      </trkpt>
      <trkpt lat="32.27259" lon="-5.41314">
        <ele>2010</ele>
        <time>2010-08-05T02:40:55Z</time>
      </trkpt>
      <trkpt lat="32.27327" lon="-5.41146">
        <ele>2009</ele>
        <time>2010-08-05T02:40:55Z</time>
      </trkpt>
      <trkpt lat="32.27565" lon="-5.41021">
        <ele>1994</ele>
        <time>2010-08-05T02:40:55Z</time>
      </trkpt>
      <trkpt lat="32.27623" lon="-5.40865">
        <ele>1984</ele>
        <time>2010-08-05T02:40:55Z</time>
      </trkpt>
      <trkpt lat="32.27708" lon="-5.40812">
        <ele>1983</ele>
        <time>2010-08-05T02:40:55Z</time>
      </trkpt>
      <trkpt lat="32.27779" lon="-5.40666">
        <ele>1977</ele>
        <time>2010-08-05T02:40:55Z</time>
      </trkpt>
      <trkpt lat="32.28026" lon="-5.40486">
        <ele>1976</ele>
        <time>2010-08-05T02:40:55Z</time>
      </trkpt>
      <trkpt lat="32.28284" lon="-5.4006">
        <ele>1958</ele>
        <time>2010-08-05T02:40:55Z</time>
      </trkpt>
      <trkpt lat="32.28448" lon="-5.3995">
        <ele>1956</ele>
        <time>2010-08-05T02:40:55Z</time>
      </trkpt>
      <trkpt lat="32.28548" lon="-5.39808">
        <ele>1951</ele>
        <time>2010-08-05T02:40:55Z</time>
      </trkpt>
      <trkpt lat="32.28612" lon="-5.39701">
        <ele>1941</ele>
        <time>2010-08-05T02:40:55Z</time>
      </trkpt>
      <trkpt lat="32.28581" lon="-5.39601">
        <ele>1939</ele>
        <time>2010-08-05T02:40:55Z</time>
      </trkpt>
      <trkpt lat="32.28668" lon="-5.39445">
        <ele>1936</ele>
        <time>2010-08-05T02:40:55Z</time>
      </trkpt>
      <trkpt lat="32.28635" lon="-5.3931">
        <ele>1942</ele>
        <time>2010-08-05T02:40:55Z</time>
      </trkpt>
      <trkpt lat="32.28673" lon="-5.39057">
        <ele>1938</ele>
        <time>2010-08-05T02:40:55Z</time>
      </trkpt>
      <trkpt lat="32.28552" lon="-5.38921">
        <ele>1953</ele>
        <time>2010-08-05T02:40:55Z</time>
      </trkpt>
      <trkpt lat="32.28433" lon="-5.38862">
        <ele>1946</ele>
        <time>2010-08-05T02:40:55Z</time>
      </trkpt>
      <trkpt lat="32.28379" lon="-5.3861">
        <ele>1952</ele>
        <time>2010-08-05T02:40:55Z</time>
      </trkpt>
      <trkpt lat="32.28433" lon="-5.38181">
        <ele>2005</ele>
        <time>2010-08-05T02:40:55Z</time>
      </trkpt>
      <trkpt lat="32.28237" lon="-5.3781">
        <ele>1990</ele>
        <time>2010-08-05T02:40:55Z</time>
      </trkpt>
      <trkpt lat="32.28013" lon="-5.37589">
        <ele>1976</ele>
        <time>2010-08-05T02:40:55Z</time>
      </trkpt>
      <trkpt lat="32.27886" lon="-5.37017">
        <ele>1999</ele>
        <time>2010-08-05T02:40:55Z</time>
      </trkpt>
      <trkpt lat="32.27802" lon="-5.36944">
        <ele>1998</ele>
        <time>2010-08-05T02:40:55Z</time>
      </trkpt>
      <trkpt lat="32.27597" lon="-5.3549">
        <ele>2013</ele>
        <time>2010-08-05T02:40:55Z</time>
      </trkpt>
      <trkpt lat="32.27603" lon="-5.35082">
        <ele>2031</ele>
        <time>2010-08-05T02:40:55Z</time>
      </trkpt>
      <trkpt lat="32.27774" lon="-5.34938">
        <ele>2044</ele>
        <time>2010-08-05T02:40:55Z</time>
      </trkpt>
      <trkpt lat="32.27693" lon="-5.34763">
        <ele>2043</ele>
        <time>2010-08-05T02:40:55Z</time>
      </trkpt>
      <trkpt lat="32.27697" lon="-5.34595">
        <ele>2052</ele>
        <time>2010-08-05T02:40:55Z</time>
      </trkpt>
      <trkpt lat="32.27729" lon="-5.34516">
        <ele>2057</ele>
        <time>2010-08-05T02:40:55Z</time>
      </trkpt>
      <trkpt lat="32.28065" lon="-5.3428">
        <ele>2082</ele>
        <time>2010-08-05T02:40:55Z</time>
      </trkpt>
      <trkpt lat="32.28201" lon="-5.33998">
        <ele>2104</ele>
        <time>2010-08-05T02:40:55Z</time>
      </trkpt>
      <trkpt lat="32.28276" lon="-5.33803">
        <ele>2116</ele>
        <time>2010-08-05T02:40:55Z</time>
      </trkpt>
      <trkpt lat="32.28231" lon="-5.33626">
        <ele>2129</ele>
        <time>2010-08-05T02:40:55Z</time>
      </trkpt>
      <trkpt lat="32.28263" lon="-5.33471">
        <ele>2138</ele>
        <time>2010-08-05T02:40:55Z</time>
      </trkpt>
      <trkpt lat="32.28449" lon="-5.33059">
        <ele>2191</ele>
        <time>2010-08-05T02:40:55Z</time>
      </trkpt>
      <trkpt lat="32.28541" lon="-5.32614">
        <ele>2185</ele>
        <time>2010-08-05T02:40:55Z</time>
      </trkpt>
      <trkpt lat="32.28741" lon="-5.32019">
        <ele>2243</ele>
        <time>2010-08-05T02:40:55Z</time>
      </trkpt>
      <trkpt lat="32.28747" lon="-5.31814">
        <ele>2272</ele>
        <time>2010-08-05T02:40:55Z</time>
      </trkpt>
      <trkpt lat="32.28679" lon="-5.31517">
        <ele>2282</ele>
        <time>2010-08-05T02:40:55Z</time>
      </trkpt>
      <trkpt lat="32.28459" lon="-5.31254">
        <ele>2308</ele>
        <time>2010-08-05T02:40:55Z</time>
      </trkpt>
      <trkpt lat="32.28495" lon="-5.31076">
        <ele>2343</ele>
        <time>2010-08-05T02:40:55Z</time>
      </trkpt>
      <trkpt lat="32.28733" lon="-5.30892">
        <ele>2395</ele>
        <time>2010-08-05T02:40:55Z</time>
      </trkpt>
      <trkpt lat="32.28724" lon="-5.30718">
        <ele>2396</ele>
        <time>2010-08-05T02:40:55Z</time>
      </trkpt>
      <trkpt lat="32.28639" lon="-5.30743">
        <ele>2408</ele>
        <time>2010-08-05T02:40:55Z</time>
      </trkpt>
      <trkpt lat="32.28584" lon="-5.30622">
        <ele>2392</ele>
        <time>2010-08-05T02:40:55Z</time>
      </trkpt>
      <trkpt lat="32.28487" lon="-5.30575">
        <ele>2410</ele>
        <time>2010-08-05T02:40:55Z</time>
      </trkpt>
      <trkpt lat="32.28564" lon="-5.30488">
        <ele>2390</ele>
        <time>2010-08-05T02:40:55Z</time>
      </trkpt>
      <trkpt lat="32.28554" lon="-5.30282">
        <ele>2380</ele>
        <time>2010-08-05T02:40:55Z</time>
      </trkpt>
      <trkpt lat="32.28646" lon="-5.30174">
        <ele>2364</ele>
        <time>2010-08-05T02:40:55Z</time>
      </trkpt>
      <trkpt lat="32.28707" lon="-5.29971">
        <ele>2335</ele>
        <time>2010-08-05T02:40:55Z</time>
      </trkpt>
      <trkpt lat="32.28624" lon="-5.29706">
        <ele>2322</ele>
        <time>2010-08-05T02:40:55Z</time>
      </trkpt>
      <trkpt lat="32.2866" lon="-5.29608">
        <ele>2283</ele>
        <time>2010-08-05T02:40:55Z</time>
      </trkpt>
      <trkpt lat="32.28633" lon="-5.29458">
        <ele>2276</ele>
        <time>2010-08-05T02:40:55Z</time>
      </trkpt>
      <trkpt lat="32.28851" lon="-5.29562">
        <ele>2264</ele>
        <time>2010-08-05T02:40:55Z</time>
      </trkpt>
      <trkpt lat="32.29231" lon="-5.29456">
        <ele>2259</ele>
        <time>2010-08-05T02:40:55Z</time>
      </trkpt>
      <trkpt lat="32.29307" lon="-5.29504">
        <ele>2256</ele>
        <time>2010-08-05T02:40:55Z</time>
      </trkpt>
      <trkpt lat="32.29407" lon="-5.29355">
        <ele>2287</ele>
        <time>2010-08-05T02:40:55Z</time>
      </trkpt>
      <trkpt lat="32.29441" lon="-5.29362">
        <ele>2283</ele>
        <time>2010-08-05T02:40:55Z</time>
      </trkpt>
      <trkpt lat="32.29583" lon="-5.29608">
        <ele>2268</ele>
        <time>2010-08-05T02:40:55Z</time>
      </trkpt>
      <trkpt lat="32.29793" lon="-5.29829">
        <ele>2244</ele>
        <time>2010-08-05T02:40:55Z</time>
      </trkpt>
      <trkpt lat="32.29804" lon="-5.29928">
        <ele>2233</ele>
        <time>2010-08-05T02:40:55Z</time>
      </trkpt>
      <trkpt lat="32.2998" lon="-5.3017">
        <ele>2199</ele>
        <time>2010-08-05T02:40:55Z</time>
      </trkpt>
      <trkpt lat="32.30075" lon="-5.30148">
        <ele>2209</ele>
        <time>2010-08-05T02:40:55Z</time>
      </trkpt>
      <trkpt lat="32.30121" lon="-5.30373">
        <ele>2188</ele>
        <time>2010-08-05T02:40:55Z</time>
      </trkpt>
      <trkpt lat="32.30218" lon="-5.30534">
        <ele>2181</ele>
        <time>2010-08-05T02:40:55Z</time>
      </trkpt>
      <trkpt lat="32.30443" lon="-5.30501">
        <ele>2166</ele>
        <time>2010-08-05T02:40:55Z</time>
      </trkpt>
      <trkpt lat="32.30537" lon="-5.30407">
        <ele>2178</ele>
        <time>2010-08-05T02:40:55Z</time>
      </trkpt>
      <trkpt lat="32.30724" lon="-5.30376">
        <ele>2192</ele>
        <time>2010-08-05T02:40:55Z</time>
      </trkpt>
      <trkpt lat="32.30908" lon="-5.30601">
        <ele>2207</ele>
        <time>2010-08-05T02:40:55Z</time>
      </trkpt>
      <trkpt lat="32.3097" lon="-5.30522">
        <ele>2225</ele>
        <time>2010-08-05T02:40:55Z</time>
      </trkpt>
      <trkpt lat="32.3102" lon="-5.30571">
        <ele>2225</ele>
        <time>2010-08-05T02:40:55Z</time>
      </trkpt>
      <trkpt lat="32.31092" lon="-5.30472">
        <ele>2242</ele>
        <time>2010-08-05T02:40:55Z</time>
      </trkpt>
      <trkpt lat="32.31079" lon="-5.30302">
        <ele>2252</ele>
        <time>2010-08-05T02:40:55Z</time>
      </trkpt>
      <trkpt lat="32.31163" lon="-5.30143">
        <ele>2261</ele>
        <time>2010-08-05T02:40:55Z</time>
      </trkpt>
      <trkpt lat="32.31449" lon="-5.30091">
        <ele>2289</ele>
        <time>2010-08-05T02:40:55Z</time>
      </trkpt>
      <trkpt lat="32.3152" lon="-5.29967">
        <ele>2281</ele>
        <time>2010-08-05T02:40:55Z</time>
      </trkpt>
      <trkpt lat="32.31642" lon="-5.30038">
        <ele>2279</ele>
        <time>2010-08-05T02:40:55Z</time>
      </trkpt>
      <trkpt lat="32.317" lon="-5.30027">
        <ele>2276</ele>
        <time>2010-08-05T02:40:55Z</time>
      </trkpt>
      <trkpt lat="32.31915" lon="-5.29823">
        <ele>2267</ele>
        <time>2010-08-05T02:40:55Z</time>
      </trkpt>
      <trkpt lat="32.31944" lon="-5.29776">
        <ele>2260</ele>
        <time>2010-08-05T02:40:55Z</time>
      </trkpt>
      <trkpt lat="32.31908" lon="-5.29718">
        <ele>2255</ele>
        <time>2010-08-05T02:40:55Z</time>
      </trkpt>
      <trkpt lat="32.32007" lon="-5.29533">
        <ele>2230</ele>
        <time>2010-08-05T02:40:55Z</time>
      </trkpt>
      <trkpt lat="32.31969" lon="-5.29285">
        <ele>2219</ele>
        <time>2010-08-05T02:40:55Z</time>
      </trkpt>
      <trkpt lat="32.32018" lon="-5.29291">
        <ele>2217</ele>
        <time>2010-08-05T02:40:55Z</time>
      </trkpt>
      <trkpt lat="32.32086" lon="-5.29382">
        <ele>2209</ele>
        <time>2010-08-05T02:40:55Z</time>
      </trkpt>
      <trkpt lat="32.322" lon="-5.2937">
        <ele>2211</ele>
        <time>2010-08-05T02:40:55Z</time>
      </trkpt>
      <trkpt lat="32.32316" lon="-5.29622">
        <ele>2205</ele>
        <time>2010-08-05T02:40:55Z</time>
      </trkpt>
      <trkpt lat="32.32283" lon="-5.2998">
        <ele>2191</ele>
        <time>2010-08-05T02:40:55Z</time>
      </trkpt>
      <trkpt lat="32.3234" lon="-5.30208">
        <ele>2196</ele>
        <time>2010-08-05T02:40:55Z</time>
      </trkpt>
      <trkpt lat="32.32456" lon="-5.30308">
        <ele>2180</ele>
        <time>2010-08-05T02:40:55Z</time>
      </trkpt>
      <trkpt lat="32.32462" lon="-5.30372">
        <ele>2181</ele>
        <time>2010-08-05T02:40:55Z</time>
      </trkpt>
      <trkpt lat="32.32403" lon="-5.30596">
        <ele>2177</ele>
        <time>2010-08-05T02:40:55Z</time>
      </trkpt>
      <trkpt lat="32.32347" lon="-5.30572">
        <ele>2183</ele>
        <time>2010-08-05T02:40:55Z</time>
      </trkpt>
      <trkpt lat="32.32357" lon="-5.30731">
        <ele>2178</ele>
        <time>2010-08-05T02:40:55Z</time>
      </trkpt>
      <trkpt lat="32.32228" lon="-5.30986">
        <ele>2175</ele>
        <time>2010-08-05T02:40:55Z</time>
      </trkpt>
      <trkpt lat="32.3214" lon="-5.31099">
        <ele>2176</ele>
        <time>2010-08-05T02:40:55Z</time>
      </trkpt>
      <trkpt lat="32.32042" lon="-5.3114">
        <ele>2167</ele>
        <time>2010-08-05T02:40:55Z</time>
      </trkpt>
      <trkpt lat="32.31763" lon="-5.31609">
        <ele>2144</ele>
        <time>2010-08-05T02:40:55Z</time>
      </trkpt>
      <trkpt lat="32.31653" lon="-5.31585">
        <ele>2142</ele>
        <time>2010-08-05T02:40:55Z</time>
      </trkpt>
      <trkpt lat="32.31699" lon="-5.31679">
        <ele>2139</ele>
        <time>2010-08-05T02:40:55Z</time>
      </trkpt>
      <trkpt lat="32.31682" lon="-5.31787">
        <ele>2139</ele>
        <time>2010-08-05T02:40:55Z</time>
      </trkpt>
      <trkpt lat="32.32056" lon="-5.31138">
        <ele>2167</ele>
        <time>2010-08-05T02:40:55Z</time>
      </trkpt>
      <trkpt lat="32.32126" lon="-5.31118">
        <ele>2176</ele>
        <time>2010-08-05T02:40:55Z</time>
      </trkpt>
      <trkpt lat="32.32224" lon="-5.30997">
        <ele>2174</ele>
        <time>2010-08-05T02:40:55Z</time>
      </trkpt>
      <trkpt lat="32.32403" lon="-5.3066">
        <ele>2181</ele>
        <time>2010-08-05T02:40:55Z</time>
      </trkpt>
      <trkpt lat="32.32469" lon="-5.30345">
        <ele>2181</ele>
        <time>2010-08-05T02:40:55Z</time>
      </trkpt>
      <trkpt lat="32.32331" lon="-5.30215">
        <ele>2194</ele>
        <time>2010-08-05T02:40:55Z</time>
      </trkpt>
      <trkpt lat="32.32275" lon="-5.2997">
        <ele>2191</ele>
        <time>2010-08-05T02:40:55Z</time>
      </trkpt>
      <trkpt lat="32.32314" lon="-5.29654">
        <ele>2202</ele>
        <time>2010-08-05T02:40:55Z</time>
      </trkpt>
      <trkpt lat="32.32211" lon="-5.29398">
        <ele>2211</ele>
        <time>2010-08-05T02:40:55Z</time>
      </trkpt>
      <trkpt lat="32.32088" lon="-5.29393">
        <ele>2209</ele>
        <time>2010-08-05T02:40:55Z</time>
      </trkpt>
      <trkpt lat="32.3198" lon="-5.29285">
        <ele>2219</ele>
        <time>2010-08-05T02:40:55Z</time>
      </trkpt>
      <trkpt lat="32.3201" lon="-5.29475">
        <ele>2228</ele>
        <time>2010-08-05T02:40:55Z</time>
      </trkpt>
      <trkpt lat="32.31902" lon="-5.29078">
        <ele>2221</ele>
        <time>2010-08-05T02:40:55Z</time>
      </trkpt>
      <trkpt lat="32.31929" lon="-5.2877">
        <ele>2236</ele>
        <time>2010-08-05T02:40:55Z</time>
      </trkpt>
      <trkpt lat="32.3207" lon="-5.28535">
        <ele>2242</ele>
        <time>2010-08-05T02:40:55Z</time>
      </trkpt>
      <trkpt lat="32.32087" lon="-5.28405">
        <ele>2249</ele>
        <time>2010-08-05T02:40:55Z</time>
      </trkpt>
      <trkpt lat="32.32013" lon="-5.27881">
        <ele>2273</ele>
        <time>2010-08-05T02:40:55Z</time>
      </trkpt>
      <trkpt lat="32.3194" lon="-5.27809">
        <ele>2277</ele>
        <time>2010-08-05T02:40:55Z</time>
      </trkpt>
      <trkpt lat="32.32025" lon="-5.27714">
        <ele>2273</ele>
        <time>2010-08-05T02:40:55Z</time>
      </trkpt>
      <trkpt lat="32.32042" lon="-5.27472">
        <ele>2280</ele>
        <time>2010-08-05T02:40:55Z</time>
      </trkpt>
      <trkpt lat="32.32216" lon="-5.2723">
        <ele>2301</ele>
        <time>2010-08-05T02:40:55Z</time>
      </trkpt>
      <trkpt lat="32.32339" lon="-5.26945">
        <ele>2310</ele>
        <time>2010-08-05T02:40:55Z</time>
      </trkpt>
      <trkpt lat="32.32438" lon="-5.26812">
        <ele>2332</ele>
        <time>2010-08-05T02:40:55Z</time>
      </trkpt>
      <trkpt lat="32.32501" lon="-5.268">
        <ele>2323</ele>
        <time>2010-08-05T02:40:55Z</time>
      </trkpt>
      <trkpt lat="32.32468" lon="-5.26701">
        <ele>2339</ele>
        <time>2010-08-05T02:40:55Z</time>
      </trkpt>
      <trkpt lat="32.3252" lon="-5.26534">
        <ele>2347</ele>
        <time>2010-08-05T02:40:55Z</time>
      </trkpt>
      <trkpt lat="32.32668" lon="-5.26456">
        <ele>2351</ele>
        <time>2010-08-05T02:40:55Z</time>
      </trkpt>
      <trkpt lat="32.3281" lon="-5.26306">
        <ele>2348</ele>
        <time>2010-08-05T02:40:55Z</time>
      </trkpt>
      <trkpt lat="32.32962" lon="-5.26065">
        <ele>2353</ele>
        <time>2010-08-05T02:40:55Z</time>
      </trkpt>
      <trkpt lat="32.33272" lon="-5.25385">
        <ele>2367</ele>
        <time>2010-08-05T02:40:55Z</time>
      </trkpt>
      <trkpt lat="32.33332" lon="-5.25031">
        <ele>2352</ele>
        <time>2010-08-05T02:40:55Z</time>
      </trkpt>
      <trkpt lat="32.33486" lon="-5.24825">
        <ele>2348</ele>
        <time>2010-08-05T02:40:55Z</time>
      </trkpt>
      <trkpt lat="32.3353" lon="-5.24634">
        <ele>2335</ele>
        <time>2010-08-05T02:40:55Z</time>
      </trkpt>
      <trkpt lat="32.3371" lon="-5.24516">
        <ele>2313</ele>
        <time>2010-08-05T02:40:55Z</time>
      </trkpt>
      <trkpt lat="32.33754" lon="-5.24427">
        <ele>2308</ele>
        <time>2010-08-05T02:40:55Z</time>
      </trkpt>
      <trkpt lat="32.33983" lon="-5.24237">
        <ele>2283</ele>
        <time>2010-08-05T02:40:55Z</time>
      </trkpt>
      <trkpt lat="32.34192" lon="-5.23595">
        <ele>2266</ele>
        <time>2010-08-05T02:40:55Z</time>
      </trkpt>
      <trkpt lat="32.34346" lon="-5.23406">
        <ele>2253</ele>
        <time>2010-08-05T02:40:55Z</time>
      </trkpt>
      <trkpt lat="32.34414" lon="-5.23232">
        <ele>2239</ele>
        <time>2010-08-05T02:40:55Z</time>
      </trkpt>
      <trkpt lat="32.34493" lon="-5.22921">
        <ele>2226</ele>
        <time>2010-08-05T02:40:55Z</time>
      </trkpt>
      <trkpt lat="32.34666" lon="-5.22961">
        <ele>2226</ele>
        <time>2010-08-05T02:40:55Z</time>
      </trkpt>
      <trkpt lat="32.34837" lon="-5.22881">
        <ele>2218</ele>
        <time>2010-08-05T02:40:55Z</time>
      </trkpt>
      <trkpt lat="32.34897" lon="-5.22554">
        <ele>2209</ele>
        <time>2010-08-05T02:40:55Z</time>
      </trkpt>
      <trkpt lat="32.35042" lon="-5.22536">
        <ele>2207</ele>
        <time>2010-08-05T02:40:55Z</time>
      </trkpt>
      <trkpt lat="32.35308" lon="-5.22364">
        <ele>2197</ele>
        <time>2010-08-05T02:40:55Z</time>
      </trkpt>
      <trkpt lat="32.35417" lon="-5.22343">
        <ele>2191</ele>
        <time>2010-08-05T02:40:55Z</time>
      </trkpt>
      <trkpt lat="32.35599" lon="-5.2202">
        <ele>2183</ele>
        <time>2010-08-05T02:40:55Z</time>
      </trkpt>
      <trkpt lat="32.35662" lon="-5.21782">
        <ele>2182</ele>
        <time>2010-08-05T02:40:55Z</time>
      </trkpt>
      <trkpt lat="32.35637" lon="-5.21639">
        <ele>2181</ele>
        <time>2010-08-05T02:40:55Z</time>
      </trkpt>
      <trkpt lat="32.35716" lon="-5.21385">
        <ele>2183</ele>
        <time>2010-08-05T02:40:55Z</time>
      </trkpt>
      <trkpt lat="32.35731" lon="-5.20925">
        <ele>2158</ele>
        <time>2010-08-05T02:40:55Z</time>
      </trkpt>
      <trkpt lat="32.35678" lon="-5.20244">
        <ele>2136</ele>
        <time>2010-08-05T02:40:55Z</time>
      </trkpt>
      <trkpt lat="32.35784" lon="-5.2002">
        <ele>2134</ele>
        <time>2010-08-05T02:40:55Z</time>
      </trkpt>
      <trkpt lat="32.35667" lon="-5.19373">
        <ele>2126</ele>
        <time>2010-08-05T02:40:55Z</time>
      </trkpt>
      <trkpt lat="32.35682" lon="-5.19284">
        <ele>2127</ele>
        <time>2010-08-05T02:40:55Z</time>
      </trkpt>
      <trkpt lat="32.35801" lon="-5.19294">
        <ele>2109</ele>
        <time>2010-08-05T02:40:55Z</time>
      </trkpt>
      <trkpt lat="32.35863" lon="-5.19195">
        <ele>2111</ele>
        <time>2010-08-05T02:40:55Z</time>
      </trkpt>
      <trkpt lat="32.35932" lon="-5.19196">
        <ele>2108</ele>
        <time>2010-08-05T02:40:55Z</time>
      </trkpt>
      <trkpt lat="32.35847" lon="-5.18774">
        <ele>2105</ele>
        <time>2010-08-05T02:40:55Z</time>
      </trkpt>
      <trkpt lat="32.35857" lon="-5.18536">
        <ele>2102</ele>
        <time>2010-08-05T02:40:55Z</time>
      </trkpt>
      <trkpt lat="32.35942" lon="-5.18378">
        <ele>2089</ele>
        <time>2010-08-05T02:40:55Z</time>
      </trkpt>
      <trkpt lat="32.35961" lon="-5.18198">
        <ele>2090</ele>
        <time>2010-08-05T02:40:55Z</time>
      </trkpt>
      <trkpt lat="32.36215" lon="-5.17936">
        <ele>2082</ele>
        <time>2010-08-05T02:40:55Z</time>
      </trkpt>
      <trkpt lat="32.36268" lon="-5.17798">
        <ele>2076</ele>
        <time>2010-08-05T02:40:55Z</time>
      </trkpt>
      <trkpt lat="32.36449" lon="-5.17696">
        <ele>2080</ele>
        <time>2010-08-05T02:40:55Z</time>
      </trkpt>
      <trkpt lat="32.36593" lon="-5.17674">
        <ele>2061</ele>
        <time>2010-08-05T02:40:55Z</time>
      </trkpt>
      <trkpt lat="32.3661" lon="-5.17878">
        <ele>2055</ele>
        <time>2010-08-05T02:40:55Z</time>
      </trkpt>
      <trkpt lat="32.36742" lon="-5.179">
        <ele>2059</ele>
        <time>2010-08-05T02:40:55Z</time>
      </trkpt>
      <trkpt lat="32.36783" lon="-5.18038">
        <ele>2049</ele>
        <time>2010-08-05T02:40:55Z</time>
      </trkpt>
      <trkpt lat="32.36931" lon="-5.18155">
        <ele>2071</ele>
        <time>2010-08-05T02:40:55Z</time>
      </trkpt>
      <trkpt lat="32.37032" lon="-5.18037">
        <ele>2045</ele>
        <time>2010-08-05T02:40:55Z</time>
      </trkpt>
      <trkpt lat="32.37242" lon="-5.17908">
        <ele>2056</ele>
        <time>2010-08-05T02:40:55Z</time>
      </trkpt>
      <trkpt lat="32.37276" lon="-5.17615">
        <ele>2035</ele>
        <time>2010-08-05T02:40:55Z</time>
      </trkpt>
      <trkpt lat="32.37394" lon="-5.17484">
        <ele>2027</ele>
        <time>2010-08-05T02:40:55Z</time>
      </trkpt>
      <trkpt lat="32.38293" lon="-5.17407">
        <ele>1995</ele>
        <time>2010-08-05T02:40:55Z</time>
      </trkpt>
      <trkpt lat="32.38381" lon="-5.17514">
        <ele>1990</ele>
        <time>2010-08-05T02:40:55Z</time>
      </trkpt>
      <trkpt lat="32.38383" lon="-5.17685">
        <ele>1996</ele>
        <time>2010-08-05T02:40:55Z</time>
      </trkpt>
      <trkpt lat="32.38477" lon="-5.17648">
        <ele>1999</ele>
        <time>2010-08-05T02:40:55Z</time>
      </trkpt>
      <trkpt lat="32.38675" lon="-5.17468">
        <ele>1994</ele>
        <time>2010-08-05T02:40:55Z</time>
      </trkpt>
      <trkpt lat="32.38942" lon="-5.17073">
        <ele>1986</ele>
        <time>2010-08-05T02:40:55Z</time>
      </trkpt>
      <trkpt lat="32.39018" lon="-5.16818">
        <ele>1982</ele>
        <time>2010-08-05T02:40:55Z</time>
      </trkpt>
      <trkpt lat="32.39191" lon="-5.16537">
        <ele>1983</ele>
        <time>2010-08-05T02:40:55Z</time>
      </trkpt>
      <trkpt lat="32.39297" lon="-5.16493">
        <ele>1981</ele>
        <time>2010-08-05T02:40:55Z</time>
      </trkpt>
      <trkpt lat="32.39345" lon="-5.16591">
        <ele>1990</ele>
        <time>2010-08-05T02:40:55Z</time>
      </trkpt>
      <trkpt lat="32.39401" lon="-5.16607">
        <ele>1989</ele>
        <time>2010-08-05T02:40:55Z</time>
      </trkpt>
      <trkpt lat="32.39465" lon="-5.16509">
        <ele>1980</ele>
        <time>2010-08-05T02:40:55Z</time>
      </trkpt>
      <trkpt lat="32.3956" lon="-5.16475">
        <ele>1981</ele>
        <time>2010-08-05T02:40:55Z</time>
      </trkpt>
      <trkpt lat="32.39592" lon="-5.16331">
        <ele>1972</ele>
        <time>2010-08-05T02:40:55Z</time>
      </trkpt>
      <trkpt lat="32.39792" lon="-5.16257">
        <ele>1980</ele>
        <time>2010-08-05T02:40:55Z</time>
      </trkpt>
      <trkpt lat="32.39857" lon="-5.16082">
        <ele>1960</ele>
        <time>2010-08-05T02:40:55Z</time>
      </trkpt>
      <trkpt lat="32.39937" lon="-5.16082">
        <ele>1956</ele>
        <time>2010-08-05T02:40:55Z</time>
      </trkpt>
      <trkpt lat="32.40189" lon="-5.16214">
        <ele>1962</ele>
        <time>2010-08-05T02:40:55Z</time>
      </trkpt>
      <trkpt lat="32.4035" lon="-5.16187">
        <ele>1965</ele>
        <time>2010-08-05T02:40:55Z</time>
      </trkpt>
      <trkpt lat="32.40743" lon="-5.15551">
        <ele>1949</ele>
        <time>2010-08-05T02:40:55Z</time>
      </trkpt>
      <trkpt lat="32.40809" lon="-5.15528">
        <ele>1950</ele>
        <time>2010-08-05T02:40:55Z</time>
      </trkpt>
      <trkpt lat="32.40931" lon="-5.15335">
        <ele>1946</ele>
        <time>2010-08-05T02:40:55Z</time>
      </trkpt>
      <trkpt lat="32.41158" lon="-5.15116">
        <ele>1945</ele>
        <time>2010-08-05T02:40:55Z</time>
      </trkpt>
      <trkpt lat="32.41324" lon="-5.15089">
        <ele>1947</ele>
        <time>2010-08-05T02:40:55Z</time>
      </trkpt>
      <trkpt lat="32.41371" lon="-5.1489">
        <ele>1932</ele>
        <time>2010-08-05T02:40:55Z</time>
      </trkpt>
      <trkpt lat="32.41787" lon="-5.14551">
        <ele>1928</ele>
        <time>2010-08-05T02:40:55Z</time>
      </trkpt>
      <trkpt lat="32.4188" lon="-5.14634">
        <ele>1931</ele>
        <time>2010-08-05T02:40:55Z</time>
      </trkpt>
      <trkpt lat="32.41907" lon="-5.14856">
        <ele>1946</ele>
        <time>2010-08-05T02:40:55Z</time>
      </trkpt>
      <trkpt lat="32.42161" lon="-5.14884">
        <ele>1929</ele>
        <time>2010-08-05T02:40:55Z</time>
      </trkpt>
      <trkpt lat="32.421" lon="-5.15188">
        <ele>1934</ele>
        <time>2010-08-05T02:40:55Z</time>
      </trkpt>
      <trkpt lat="32.42126" lon="-5.15296">
        <ele>1958</ele>
        <time>2010-08-05T02:40:55Z</time>
      </trkpt>
      <trkpt lat="32.42288" lon="-5.15251">
        <ele>1924</ele>
        <time>2010-08-05T02:40:55Z</time>
      </trkpt>
      <trkpt lat="32.42489" lon="-5.15305">
        <ele>1905</ele>
        <time>2010-08-05T02:40:55Z</time>
      </trkpt>
      <trkpt lat="32.42526" lon="-5.15433">
        <ele>1908</ele>
        <time>2010-08-05T02:40:55Z</time>
      </trkpt>
      <trkpt lat="32.42473" lon="-5.1558">
        <ele>1918</ele>
        <time>2010-08-05T02:40:55Z</time>
      </trkpt>
      <trkpt lat="32.42524" lon="-5.15759">
        <ele>1902</ele>
        <time>2010-08-05T02:40:55Z</time>
      </trkpt>
      <trkpt lat="32.4271" lon="-5.15673">
        <ele>1887</ele>
        <time>2010-08-05T02:40:55Z</time>
      </trkpt>
      <trkpt lat="32.42788" lon="-5.1572">
        <ele>1891</ele>
        <time>2010-08-05T02:40:55Z</time>
      </trkpt>
      <trkpt lat="32.43046" lon="-5.15737">
        <ele>1885</ele>
        <time>2010-08-05T02:40:55Z</time>
      </trkpt>
      <trkpt lat="32.43152" lon="-5.15828">
        <ele>1899</ele>
        <time>2010-08-05T02:40:55Z</time>
      </trkpt>
      <trkpt lat="32.43338" lon="-5.15684">
        <ele>1879</ele>
        <time>2010-08-05T02:40:55Z</time>
      </trkpt>
      <trkpt lat="32.43485" lon="-5.15878">
        <ele>1911</ele>
        <time>2010-08-05T02:40:55Z</time>
      </trkpt>
      <trkpt lat="32.43602" lon="-5.15829">
        <ele>1885</ele>
        <time>2010-08-05T02:40:55Z</time>
      </trkpt>
      <trkpt lat="32.43655" lon="-5.15555">
        <ele>1865</ele>
        <time>2010-08-05T02:40:55Z</time>
      </trkpt>
      <trkpt lat="32.43823" lon="-5.15494">
        <ele>1873</ele>
        <time>2010-08-05T02:40:55Z</time>
      </trkpt>
      <trkpt lat="32.43953" lon="-5.15349">
        <ele>1874</ele>
        <time>2010-08-05T02:40:55Z</time>
      </trkpt>
      <trkpt lat="32.44016" lon="-5.15336">
        <ele>1865</ele>
        <time>2010-08-05T02:40:55Z</time>
      </trkpt>
      <trkpt lat="32.44076" lon="-5.15393">
        <ele>1859</ele>
        <time>2010-08-05T02:40:55Z</time>
      </trkpt>
      <trkpt lat="32.44055" lon="-5.15547">
        <ele>1875</ele>
        <time>2010-08-05T02:40:55Z</time>
      </trkpt>
      <trkpt lat="32.44123" lon="-5.15589">
        <ele>1872</ele>
        <time>2010-08-05T02:40:55Z</time>
      </trkpt>
      <trkpt lat="32.44288" lon="-5.15541">
        <ele>1859</ele>
        <time>2010-08-05T02:40:55Z</time>
      </trkpt>
      <trkpt lat="32.44434" lon="-5.15602">
        <ele>1858</ele>
        <time>2010-08-05T02:40:55Z</time>
      </trkpt>
      <trkpt lat="32.44493" lon="-5.15328">
        <ele>1847</ele>
        <time>2010-08-05T02:40:55Z</time>
      </trkpt>
      <trkpt lat="32.44608" lon="-5.15161">
        <ele>1847</ele>
        <time>2010-08-05T02:40:55Z</time>
      </trkpt>
      <trkpt lat="32.44929" lon="-5.15295">
        <ele>1838</ele>
        <time>2010-08-05T02:40:55Z</time>
      </trkpt>
      <trkpt lat="32.45084" lon="-5.15271">
        <ele>1828</ele>
        <time>2010-08-05T02:40:55Z</time>
      </trkpt>
      <trkpt lat="32.45221" lon="-5.15489">
        <ele>1831</ele>
        <time>2010-08-05T02:40:55Z</time>
      </trkpt>
      <trkpt lat="32.45284" lon="-5.15502">
        <ele>1830</ele>
        <time>2010-08-05T02:40:55Z</time>
      </trkpt>
      <trkpt lat="32.4538" lon="-5.15366">
        <ele>1831</ele>
        <time>2010-08-05T02:40:55Z</time>
      </trkpt>
      <trkpt lat="32.45327" lon="-5.15134">
        <ele>1827</ele>
        <time>2010-08-05T02:40:55Z</time>
      </trkpt>
      <trkpt lat="32.45366" lon="-5.15111">
        <ele>1824</ele>
        <time>2010-08-05T02:40:55Z</time>
      </trkpt>
      <trkpt lat="32.45453" lon="-5.15112">
        <ele>1821</ele>
        <time>2010-08-05T02:40:55Z</time>
      </trkpt>
      <trkpt lat="32.45531" lon="-5.1524">
        <ele>1828</ele>
        <time>2010-08-05T02:40:55Z</time>
      </trkpt>
      <trkpt lat="32.45688" lon="-5.15149">
        <ele>1816</ele>
        <time>2010-08-05T02:40:55Z</time>
      </trkpt>
      <trkpt lat="32.45841" lon="-5.15236">
        <ele>1812</ele>
        <time>2010-08-05T02:40:55Z</time>
      </trkpt>
      <trkpt lat="32.46078" lon="-5.15058">
        <ele>1811</ele>
        <time>2010-08-05T02:40:55Z</time>
      </trkpt>
      <trkpt lat="32.4626" lon="-5.15175">
        <ele>1812</ele>
        <time>2010-08-05T02:40:55Z</time>
      </trkpt>
      <trkpt lat="32.46341" lon="-5.15167">
        <ele>1818</ele>
        <time>2010-08-05T02:40:55Z</time>
      </trkpt>
      <trkpt lat="32.46449" lon="-5.15041">
        <ele>1812</ele>
        <time>2010-08-05T02:40:55Z</time>
      </trkpt>
      <trkpt lat="32.4663" lon="-5.14929">
        <ele>1804</ele>
        <time>2010-08-05T02:40:55Z</time>
      </trkpt>
      <trkpt lat="32.4679" lon="-5.14981">
        <ele>1797</ele>
        <time>2010-08-05T02:40:55Z</time>
      </trkpt>
      <trkpt lat="32.46954" lon="-5.14973">
        <ele>1801</ele>
        <time>2010-08-05T02:40:55Z</time>
      </trkpt>
      <trkpt lat="32.47126" lon="-5.1488">
        <ele>1794</ele>
        <time>2010-08-05T02:40:55Z</time>
      </trkpt>
      <trkpt lat="32.47439" lon="-5.14986">
        <ele>1790</ele>
        <time>2010-08-05T02:40:55Z</time>
      </trkpt>
      <trkpt lat="32.47792" lon="-5.14912">
        <ele>1786</ele>
        <time>2010-08-05T02:40:55Z</time>
      </trkpt>
      <trkpt lat="32.48015" lon="-5.14999">
        <ele>1793</ele>
        <time>2010-08-05T02:40:55Z</time>
      </trkpt>
      <trkpt lat="32.48166" lon="-5.14814">
        <ele>1802</ele>
        <time>2010-08-05T02:40:55Z</time>
      </trkpt>
      <trkpt lat="32.48492" lon="-5.15015">
        <ele>1833</ele>
        <time>2010-08-05T02:40:55Z</time>
      </trkpt>
      <trkpt lat="32.48543" lon="-5.1497">
        <ele>1835</ele>
        <time>2010-08-05T02:40:55Z</time>
      </trkpt>
      <trkpt lat="32.48589" lon="-5.14996">
        <ele>1834</ele>
        <time>2010-08-05T02:40:55Z</time>
      </trkpt>
      <trkpt lat="32.48812" lon="-5.15716">
        <ele>1846</ele>
        <time>2010-08-05T02:40:55Z</time>
      </trkpt>
      <trkpt lat="32.48843" lon="-5.16023">
        <ele>1846</ele>
        <time>2010-08-05T02:40:55Z</time>
      </trkpt>
      <trkpt lat="32.49102" lon="-5.16413">
        <ele>1864</ele>
        <time>2010-08-05T02:40:55Z</time>
      </trkpt>
      <trkpt lat="32.49428" lon="-5.16715">
        <ele>1878</ele>
        <time>2010-08-05T02:40:55Z</time>
      </trkpt>
      <trkpt lat="32.49821" lon="-5.17518">
        <ele>1893</ele>
        <time>2010-08-05T02:40:55Z</time>
      </trkpt>
      <trkpt lat="32.50222" lon="-5.17771">
        <ele>1913</ele>
        <time>2010-08-05T02:40:55Z</time>
      </trkpt>
      <trkpt lat="32.50498" lon="-5.17689">
        <ele>1934</ele>
        <time>2010-08-05T02:40:55Z</time>
      </trkpt>
      <trkpt lat="32.50746" lon="-5.17372">
        <ele>1941</ele>
        <time>2010-08-05T02:40:55Z</time>
      </trkpt>
      <trkpt lat="32.50779" lon="-5.17128">
        <ele>1939</ele>
        <time>2010-08-05T02:40:55Z</time>
      </trkpt>
      <trkpt lat="32.50953" lon="-5.16988">
        <ele>1925</ele>
        <time>2010-08-05T02:40:55Z</time>
      </trkpt>
      <trkpt lat="32.51017" lon="-5.16773">
        <ele>1912</ele>
        <time>2010-08-05T02:40:55Z</time>
      </trkpt>
      <trkpt lat="32.51114" lon="-5.16096">
        <ele>1914</ele>
        <time>2010-08-05T02:40:55Z</time>
      </trkpt>
      <trkpt lat="32.51246" lon="-5.14255">
        <ele>1870</ele>
        <time>2010-08-05T02:40:55Z</time>
      </trkpt>
      <trkpt lat="32.51858" lon="-5.12316">
        <ele>1814</ele>
        <time>2010-08-05T02:40:55Z</time>
      </trkpt>
      <trkpt lat="32.51906" lon="-5.11958">
        <ele>1801</ele>
        <time>2010-08-05T02:40:55Z</time>
      </trkpt>
      <trkpt lat="32.51888" lon="-5.11101">
        <ele>1781</ele>
        <time>2010-08-05T02:40:55Z</time>
      </trkpt>
      <trkpt lat="32.51817" lon="-5.10969">
        <ele>1783</ele>
        <time>2010-08-05T02:40:55Z</time>
      </trkpt>
      <trkpt lat="32.51654" lon="-5.10282">
        <ele>1756</ele>
        <time>2010-08-05T02:40:55Z</time>
      </trkpt>
      <trkpt lat="32.51704" lon="-5.09713">
        <ele>1725</ele>
        <time>2010-08-05T02:40:55Z</time>
      </trkpt>
      <trkpt lat="32.5161" lon="-5.0883">
        <ele>1713</ele>
        <time>2010-08-05T02:40:55Z</time>
      </trkpt>
      <trkpt lat="32.51676" lon="-5.08507">
        <ele>1692</ele>
        <time>2010-08-05T02:40:55Z</time>
      </trkpt>
      <trkpt lat="32.51631" lon="-5.08494">
        <ele>1693</ele>
        <time>2010-08-05T02:40:55Z</time>
      </trkpt>
      <trkpt lat="32.51629" lon="-5.08409">
        <ele>1688</ele>
        <time>2010-08-05T02:40:55Z</time>
      </trkpt>
      <trkpt lat="32.51682" lon="-5.08448">
        <ele>1687</ele>
        <time>2010-08-05T02:40:55Z</time>
      </trkpt>
      <trkpt lat="32.51626" lon="-5.08423">
        <ele>1688</ele>
        <time>2010-08-05T02:40:55Z</time>
      </trkpt>
      <trkpt lat="32.51623" lon="-5.08468">
        <ele>1692</ele>
        <time>2010-08-05T02:40:55Z</time>
      </trkpt>
      <trkpt lat="32.51646" lon="-5.08525">
        <ele>1695</ele>
        <time>2010-08-05T02:40:55Z</time>
      </trkpt>
      <trkpt lat="32.51677" lon="-5.08507">
        <ele>1692</ele>
        <time>2010-08-05T02:40:55Z</time>
      </trkpt>
      <trkpt lat="32.51649" lon="-5.08533">
        <ele>1695</ele>
        <time>2010-08-05T02:40:55Z</time>
      </trkpt>
      <trkpt lat="32.51661" lon="-5.08401">
        <ele>1689</ele>
        <time>2010-08-05T02:40:55Z</time>
      </trkpt>
      <trkpt lat="32.51722" lon="-5.08413">
        <ele>1691</ele>
        <time>2010-08-05T02:40:55Z</time>
      </trkpt>
      <trkpt lat="32.51562" lon="-5.0815">
        <ele>1726</ele>
        <time>2010-08-05T02:40:55Z</time>
      </trkpt>
      <trkpt lat="32.51607" lon="-5.0808">
        <ele>1723</ele>
        <time>2010-08-05T02:40:55Z</time>
      </trkpt>
      <trkpt lat="32.51721" lon="-5.0805">
        <ele>1721</ele>
        <time>2010-08-05T02:40:55Z</time>
      </trkpt>
      <trkpt lat="32.51846" lon="-5.07519">
        <ele>1722</ele>
        <time>2010-08-05T02:40:55Z</time>
      </trkpt>
      <trkpt lat="32.51739" lon="-5.06862">
        <ele>1727</ele>
        <time>2010-08-05T02:40:55Z</time>
      </trkpt>
      <trkpt lat="32.51797" lon="-5.06832">
        <ele>1719</ele>
        <time>2010-08-05T02:40:55Z</time>
      </trkpt>
      <trkpt lat="32.51795" lon="-5.06668">
        <ele>1720</ele>
        <time>2010-08-05T02:40:55Z</time>
      </trkpt>
      <trkpt lat="32.51588" lon="-5.06367">
        <ele>1731</ele>
        <time>2010-08-05T02:40:55Z</time>
      </trkpt>
      <trkpt lat="32.5174" lon="-5.05805">
        <ele>1763</ele>
        <time>2010-08-05T02:40:55Z</time>
      </trkpt>
      <trkpt lat="32.51695" lon="-5.05734">
        <ele>1764</ele>
        <time>2010-08-05T02:40:55Z</time>
      </trkpt>
      <trkpt lat="32.51503" lon="-5.05758">
        <ele>1756</ele>
        <time>2010-08-05T02:40:55Z</time>
      </trkpt>
      <trkpt lat="32.51411" lon="-5.05682">
        <ele>1752</ele>
        <time>2010-08-05T02:40:55Z</time>
      </trkpt>
      <trkpt lat="32.51422" lon="-5.04974">
        <ele>1766</ele>
        <time>2010-08-05T02:40:55Z</time>
      </trkpt>
      <trkpt lat="32.51476" lon="-5.04606">
        <ele>1794</ele>
        <time>2010-08-05T02:40:55Z</time>
      </trkpt>
      <trkpt lat="32.51656" lon="-5.04294">
        <ele>1800</ele>
        <time>2010-08-05T02:40:55Z</time>
      </trkpt>
      <trkpt lat="32.51597" lon="-5.04238">
        <ele>1807</ele>
        <time>2010-08-05T02:40:55Z</time>
      </trkpt>
      <trkpt lat="32.51565" lon="-5.04026">
        <ele>1821</ele>
        <time>2010-08-05T02:40:55Z</time>
      </trkpt>
      <trkpt lat="32.51604" lon="-5.03918">
        <ele>1814</ele>
        <time>2010-08-05T02:40:55Z</time>
      </trkpt>
      <trkpt lat="32.51864" lon="-5.03735">
        <ele>1826</ele>
        <time>2010-08-05T02:40:55Z</time>
      </trkpt>
      <trkpt lat="32.51923" lon="-5.03619">
        <ele>1830</ele>
        <time>2010-08-05T02:40:55Z</time>
      </trkpt>
      <trkpt lat="32.52065" lon="-5.02049">
        <ele>1875</ele>
        <time>2010-08-05T02:40:55Z</time>
      </trkpt>
      <trkpt lat="32.52161" lon="-5.01707">
        <ele>1898</ele>
        <time>2010-08-05T02:40:55Z</time>
      </trkpt>
      <trkpt lat="32.52324" lon="-5.01417">
        <ele>1904</ele>
        <time>2010-08-05T02:40:55Z</time>
      </trkpt>
      <trkpt lat="32.52432" lon="-5.01345">
        <ele>1906</ele>
        <time>2010-08-05T02:40:55Z</time>
      </trkpt>
      <trkpt lat="32.52757" lon="-5.00885">
        <ele>1931</ele>
        <time>2010-08-05T02:40:55Z</time>
      </trkpt>
      <trkpt lat="32.52911" lon="-5.00768">
        <ele>1952</ele>
        <time>2010-08-05T02:40:55Z</time>
      </trkpt>
      <trkpt lat="32.53" lon="-5.00858">
        <ele>1964</ele>
        <time>2010-08-05T02:40:55Z</time>
      </trkpt>
      <trkpt lat="32.5303" lon="-5.01074">
        <ele>1943</ele>
        <time>2010-08-05T02:40:55Z</time>
      </trkpt>
      <trkpt lat="32.52989" lon="-5.01418">
        <ele>1923</ele>
        <time>2010-08-05T02:40:55Z</time>
      </trkpt>
      <trkpt lat="32.53065" lon="-5.01607">
        <ele>1920</ele>
        <time>2010-08-05T02:40:55Z</time>
      </trkpt>
      <trkpt lat="32.52943" lon="-5.02011">
        <ele>1903</ele>
        <time>2010-08-05T02:40:55Z</time>
      </trkpt>
      <trkpt lat="32.52847" lon="-5.02181">
        <ele>1888</ele>
        <time>2010-08-05T02:40:55Z</time>
      </trkpt>
      <trkpt lat="32.52924" lon="-5.02082">
        <ele>1895</ele>
        <time>2010-08-05T02:40:55Z</time>
      </trkpt>
      <trkpt lat="32.53072" lon="-5.01625">
        <ele>1924</ele>
        <time>2010-08-05T02:40:55Z</time>
      </trkpt>
      <trkpt lat="32.52989" lon="-5.01434">
        <ele>1924</ele>
        <time>2010-08-05T02:40:55Z</time>
      </trkpt>
      <trkpt lat="32.53023" lon="-5.01143">
        <ele>1938</ele>
        <time>2010-08-05T02:40:55Z</time>
      </trkpt>
      <trkpt lat="32.52993" lon="-5.00803">
        <ele>1967</ele>
        <time>2010-08-05T02:40:55Z</time>
      </trkpt>
      <trkpt lat="32.53152" lon="-5.00232">
        <ele>1973</ele>
        <time>2010-08-05T02:40:55Z</time>
      </trkpt>
      <trkpt lat="32.53041" lon="-4.99401">
        <ele>1953</ele>
        <time>2010-08-05T02:40:55Z</time>
      </trkpt>
      <trkpt lat="32.52993" lon="-4.99358">
        <ele>1955</ele>
        <time>2010-08-05T02:40:55Z</time>
      </trkpt>
      <trkpt lat="32.53045" lon="-4.99302">
        <ele>1944</ele>
        <time>2010-08-05T02:40:55Z</time>
      </trkpt>
      <trkpt lat="32.52949" lon="-4.99142">
        <ele>1964</ele>
        <time>2010-08-05T02:40:55Z</time>
      </trkpt>
      <trkpt lat="32.53129" lon="-4.99138">
        <ele>1945</ele>
        <time>2010-08-05T02:40:55Z</time>
      </trkpt>
      <trkpt lat="32.5329" lon="-4.98811">
        <ele>1998</ele>
        <time>2010-08-05T02:40:55Z</time>
      </trkpt>
      <trkpt lat="32.53433" lon="-4.99175">
        <ele>1976</ele>
        <time>2010-08-05T02:40:55Z</time>
      </trkpt>
      <trkpt lat="32.53458" lon="-4.98786">
        <ele>2026</ele>
        <time>2010-08-05T02:40:55Z</time>
      </trkpt>
      <trkpt lat="32.53569" lon="-4.98785">
        <ele>2033</ele>
        <time>2010-08-05T02:40:55Z</time>
      </trkpt>
      <trkpt lat="32.53632" lon="-4.98899">
        <ele>2022</ele>
        <time>2010-08-05T02:40:55Z</time>
      </trkpt>
      <trkpt lat="32.53727" lon="-4.98815">
        <ele>2027</ele>
        <time>2010-08-05T02:40:55Z</time>
      </trkpt>
      <trkpt lat="32.53594" lon="-4.98484">
        <ele>2036</ele>
        <time>2010-08-05T02:40:55Z</time>
      </trkpt>
      <trkpt lat="32.53434" lon="-4.9835">
        <ele>2049</ele>
        <time>2010-08-05T02:40:55Z</time>
      </trkpt>
      <trkpt lat="32.53526" lon="-4.98271">
        <ele>2033</ele>
        <time>2010-08-05T02:40:55Z</time>
      </trkpt>
      <trkpt lat="32.5346" lon="-4.97994">
        <ele>2050</ele>
        <time>2010-08-05T02:40:55Z</time>
      </trkpt>
      <trkpt lat="32.53544" lon="-4.97998">
        <ele>2039</ele>
        <time>2010-08-05T02:40:55Z</time>
      </trkpt>
      <trkpt lat="32.53554" lon="-4.97963">
        <ele>2040</ele>
        <time>2010-08-05T02:40:55Z</time>
      </trkpt>
      <trkpt lat="32.53457" lon="-4.97808">
        <ele>2057</ele>
        <time>2010-08-05T02:40:55Z</time>
      </trkpt>
      <trkpt lat="32.53644" lon="-4.97903">
        <ele>2034</ele>
        <time>2010-08-05T02:40:55Z</time>
      </trkpt>
      <trkpt lat="32.53676" lon="-4.97745">
        <ele>2037</ele>
        <time>2010-08-05T02:40:55Z</time>
      </trkpt>
      <trkpt lat="32.54112" lon="-4.98012">
        <ele>1987</ele>
        <time>2010-08-05T02:40:55Z</time>
      </trkpt>
      <trkpt lat="32.54221" lon="-4.97846">
        <ele>1985</ele>
        <time>2010-08-05T02:40:55Z</time>
      </trkpt>
      <trkpt lat="32.54227" lon="-4.97717">
        <ele>1982</ele>
        <time>2010-08-05T02:40:55Z</time>
      </trkpt>
      <trkpt lat="32.54169" lon="-4.97585">
        <ele>1982</ele>
        <time>2010-08-05T02:40:55Z</time>
      </trkpt>
      <trkpt lat="32.5401" lon="-4.97421">
        <ele>1985</ele>
        <time>2010-08-05T02:40:55Z</time>
      </trkpt>
      <trkpt lat="32.54138" lon="-4.97305">
        <ele>1982</ele>
        <time>2010-08-05T02:40:55Z</time>
      </trkpt>
      <trkpt lat="32.54034" lon="-4.97159">
        <ele>1991</ele>
        <time>2010-08-05T02:40:55Z</time>
      </trkpt>
      <trkpt lat="32.53924" lon="-4.97103">
        <ele>2010</ele>
        <time>2010-08-05T02:40:55Z</time>
      </trkpt>
      <trkpt lat="32.53699" lon="-4.97179">
        <ele>2039</ele>
        <time>2010-08-05T02:40:55Z</time>
      </trkpt>
      <trkpt lat="32.53517" lon="-4.97389">
        <ele>2053</ele>
        <time>2010-08-05T02:40:55Z</time>
      </trkpt>
      <trkpt lat="32.53454" lon="-4.97333">
        <ele>2059</ele>
        <time>2010-08-05T02:40:55Z</time>
      </trkpt>
      <trkpt lat="32.5352" lon="-4.97401">
        <ele>2053</ele>
        <time>2010-08-05T02:40:55Z</time>
      </trkpt>
      <trkpt lat="32.53681" lon="-4.97217">
        <ele>2036</ele>
        <time>2010-08-05T02:40:55Z</time>
      </trkpt>
      <trkpt lat="32.53673" lon="-4.97022">
        <ele>2064</ele>
        <time>2010-08-05T02:40:55Z</time>
      </trkpt>
      <trkpt lat="32.53792" lon="-4.96926">
        <ele>2041</ele>
        <time>2010-08-05T02:40:55Z</time>
      </trkpt>
      <trkpt lat="32.53848" lon="-4.96691">
        <ele>2043</ele>
        <time>2010-08-05T02:40:55Z</time>
      </trkpt>
      <trkpt lat="32.53833" lon="-4.96555">
        <ele>2069</ele>
        <time>2010-08-05T02:40:55Z</time>
      </trkpt>
      <trkpt lat="32.53952" lon="-4.96351">
        <ele>2069</ele>
        <time>2010-08-05T02:40:55Z</time>
      </trkpt>
      <trkpt lat="32.54286" lon="-4.96343">
        <ele>2054</ele>
        <time>2010-08-05T02:40:55Z</time>
      </trkpt>
      <trkpt lat="32.54525" lon="-4.96402">
        <ele>2040</ele>
        <time>2010-08-05T02:40:55Z</time>
      </trkpt>
      <trkpt lat="32.54643" lon="-4.96349">
        <ele>2031</ele>
        <time>2010-08-05T02:40:55Z</time>
      </trkpt>
      <trkpt lat="32.54709" lon="-4.96155">
        <ele>2043</ele>
        <time>2010-08-05T02:40:55Z</time>
      </trkpt>
      <trkpt lat="32.54681" lon="-4.96122">
        <ele>2044</ele>
        <time>2010-08-05T02:40:55Z</time>
      </trkpt>
      <trkpt lat="32.54409" lon="-4.96199">
        <ele>2059</ele>
        <time>2010-08-05T02:40:55Z</time>
      </trkpt>
      <trkpt lat="32.5419" lon="-4.96119">
        <ele>2079</ele>
        <time>2010-08-05T02:40:55Z</time>
      </trkpt>
      <trkpt lat="32.5396" lon="-4.95879">
        <ele>2104</ele>
        <time>2010-08-05T02:40:55Z</time>
      </trkpt>
      <trkpt lat="32.54004" lon="-4.95624">
        <ele>2102</ele>
        <time>2010-08-05T02:40:55Z</time>
      </trkpt>
      <trkpt lat="32.53885" lon="-4.95497">
        <ele>2117</ele>
        <time>2010-08-05T02:40:55Z</time>
      </trkpt>
      <trkpt lat="32.54073" lon="-4.95482">
        <ele>2092</ele>
        <time>2010-08-05T02:40:55Z</time>
      </trkpt>
      <trkpt lat="32.54064" lon="-4.9538">
        <ele>2099</ele>
        <time>2010-08-05T02:40:55Z</time>
      </trkpt>
      <trkpt lat="32.53988" lon="-4.95322">
        <ele>2109</ele>
        <time>2010-08-05T02:40:55Z</time>
      </trkpt>
      <trkpt lat="32.54031" lon="-4.95271">
        <ele>2110</ele>
        <time>2010-08-05T02:40:55Z</time>
      </trkpt>
      <trkpt lat="32.53946" lon="-4.95106">
        <ele>2132</ele>
        <time>2010-08-05T02:40:55Z</time>
      </trkpt>
      <trkpt lat="32.54123" lon="-4.95085">
        <ele>2124</ele>
        <time>2010-08-05T02:40:55Z</time>
      </trkpt>
      <trkpt lat="32.54203" lon="-4.94873">
        <ele>2148</ele>
        <time>2010-08-05T02:40:55Z</time>
      </trkpt>
      <trkpt lat="32.54133" lon="-4.94648">
        <ele>2144</ele>
        <time>2010-08-05T02:40:55Z</time>
      </trkpt>
      <trkpt lat="32.54049" lon="-4.94543">
        <ele>2159</ele>
        <time>2010-08-05T02:40:55Z</time>
      </trkpt>
      <trkpt lat="32.54072" lon="-4.94343">
        <ele>2150</ele>
        <time>2010-08-05T02:40:55Z</time>
      </trkpt>
      <trkpt lat="32.54274" lon="-4.94287">
        <ele>2145</ele>
        <time>2010-08-05T02:40:55Z</time>
      </trkpt>
      <trkpt lat="32.54115" lon="-4.94101">
        <ele>2157</ele>
        <time>2010-08-05T02:40:55Z</time>
      </trkpt>
      <trkpt lat="32.54044" lon="-4.93974">
        <ele>2155</ele>
        <time>2010-08-05T02:40:55Z</time>
      </trkpt>
      <trkpt lat="32.54055" lon="-4.93906">
        <ele>2149</ele>
        <time>2010-08-05T02:40:55Z</time>
      </trkpt>
      <trkpt lat="32.53913" lon="-4.93867">
        <ele>2176</ele>
        <time>2010-08-05T02:40:55Z</time>
      </trkpt>
      <trkpt lat="32.53986" lon="-4.93805">
        <ele>2165</ele>
        <time>2010-08-05T02:40:55Z</time>
      </trkpt>
      <trkpt lat="32.53966" lon="-4.93692">
        <ele>2171</ele>
        <time>2010-08-05T02:40:55Z</time>
      </trkpt>
      <trkpt lat="32.54098" lon="-4.93635">
        <ele>2164</ele>
        <time>2010-08-05T02:40:55Z</time>
      </trkpt>
      <trkpt lat="32.5434" lon="-4.93733">
        <ele>2154</ele>
        <time>2010-08-05T02:40:55Z</time>
      </trkpt>
      <trkpt lat="32.54375" lon="-4.93669">
        <ele>2151</ele>
        <time>2010-08-05T02:40:55Z</time>
      </trkpt>
      <trkpt lat="32.54337" lon="-4.93423">
        <ele>2157</ele>
        <time>2010-08-05T02:40:55Z</time>
      </trkpt>
      <trkpt lat="32.54451" lon="-4.9346">
        <ele>2118</ele>
        <time>2010-08-05T02:40:55Z</time>
      </trkpt>
      <trkpt lat="32.54531" lon="-4.93327">
        <ele>2151</ele>
        <time>2010-08-05T02:40:55Z</time>
      </trkpt>
      <trkpt lat="32.54483" lon="-4.93199">
        <ele>2160</ele>
        <time>2010-08-05T02:40:55Z</time>
      </trkpt>
      <trkpt lat="32.5441" lon="-4.93142">
        <ele>2169</ele>
        <time>2010-08-05T02:40:55Z</time>
      </trkpt>
      <trkpt lat="32.54391" lon="-4.92948">
        <ele>2153</ele>
        <time>2010-08-05T02:40:55Z</time>
      </trkpt>
      <trkpt lat="32.54281" lon="-4.92843">
        <ele>2158</ele>
        <time>2010-08-05T02:40:55Z</time>
      </trkpt>
      <trkpt lat="32.54369" lon="-4.92819">
        <ele>2148</ele>
        <time>2010-08-05T02:40:55Z</time>
      </trkpt>
      <trkpt lat="32.54359" lon="-4.9274">
        <ele>2149</ele>
        <time>2010-08-05T02:40:55Z</time>
      </trkpt>
      <trkpt lat="32.54281" lon="-4.92729">
        <ele>2155</ele>
        <time>2010-08-05T02:40:55Z</time>
      </trkpt>
      <trkpt lat="32.54407" lon="-4.92603">
        <ele>2139</ele>
        <time>2010-08-05T02:40:55Z</time>
      </trkpt>
      <trkpt lat="32.54353" lon="-4.92469">
        <ele>2149</ele>
        <time>2010-08-05T02:40:55Z</time>
      </trkpt>
      <trkpt lat="32.54391" lon="-4.92332">
        <ele>2139</ele>
        <time>2010-08-05T02:40:55Z</time>
      </trkpt>
      <trkpt lat="32.54249" lon="-4.92241">
        <ele>2146</ele>
        <time>2010-08-05T02:40:55Z</time>
      </trkpt>
      <trkpt lat="32.54316" lon="-4.91652">
        <ele>2137</ele>
        <time>2010-08-05T02:40:55Z</time>
      </trkpt>
      <trkpt lat="32.5424" lon="-4.91494">
        <ele>2132</ele>
        <time>2010-08-05T02:40:55Z</time>
      </trkpt>
      <trkpt lat="32.54052" lon="-4.91313">
        <ele>2145</ele>
        <time>2010-08-05T02:40:55Z</time>
      </trkpt>
      <trkpt lat="32.5405" lon="-4.91066">
        <ele>2148</ele>
        <time>2010-08-05T02:40:55Z</time>
      </trkpt>
      <trkpt lat="32.54189" lon="-4.90995">
        <ele>2135</ele>
        <time>2010-08-05T02:40:55Z</time>
      </trkpt>
      <trkpt lat="32.54184" lon="-4.9092">
        <ele>2136</ele>
        <time>2010-08-05T02:40:55Z</time>
      </trkpt>
      <trkpt lat="32.53963" lon="-4.90854">
        <ele>2171</ele>
        <time>2010-08-05T02:40:55Z</time>
      </trkpt>
      <trkpt lat="32.54033" lon="-4.90712">
        <ele>2162</ele>
        <time>2010-08-05T02:40:55Z</time>
      </trkpt>
      <trkpt lat="32.54023" lon="-4.90586">
        <ele>2176</ele>
        <time>2010-08-05T02:40:55Z</time>
      </trkpt>
      <trkpt lat="32.54109" lon="-4.90423">
        <ele>2180</ele>
        <time>2010-08-05T02:40:55Z</time>
      </trkpt>
      <trkpt lat="32.54242" lon="-4.90354">
        <ele>2170</ele>
        <time>2010-08-05T02:40:55Z</time>
      </trkpt>
      <trkpt lat="32.54258" lon="-4.90275">
        <ele>2180</ele>
        <time>2010-08-05T02:40:55Z</time>
      </trkpt>
      <trkpt lat="32.54145" lon="-4.90201">
        <ele>2184</ele>
        <time>2010-08-05T02:40:55Z</time>
      </trkpt>
      <trkpt lat="32.54167" lon="-4.9009">
        <ele>2160</ele>
        <time>2010-08-05T02:40:55Z</time>
      </trkpt>
      <trkpt lat="32.53843" lon="-4.90136">
        <ele>2158</ele>
        <time>2010-08-05T02:40:55Z</time>
      </trkpt>
      <trkpt lat="32.53746" lon="-4.90081">
        <ele>2147</ele>
        <time>2010-08-05T02:40:55Z</time>
      </trkpt>
      <trkpt lat="32.53677" lon="-4.90116">
        <ele>2161</ele>
        <time>2010-08-05T02:40:55Z</time>
      </trkpt>
      <trkpt lat="32.53841" lon="-4.90021">
        <ele>2125</ele>
        <time>2010-08-05T02:40:55Z</time>
      </trkpt>
      <trkpt lat="32.53882" lon="-4.89902">
        <ele>2111</ele>
        <time>2010-08-05T02:40:55Z</time>
      </trkpt>
      <trkpt lat="32.53941" lon="-4.89928">
        <ele>2107</ele>
        <time>2010-08-05T02:40:55Z</time>
      </trkpt>
      <trkpt lat="32.53903" lon="-4.89853">
        <ele>2106</ele>
        <time>2010-08-05T02:40:55Z</time>
      </trkpt>
      <trkpt lat="32.53812" lon="-4.89882">
        <ele>2125</ele>
        <time>2010-08-05T02:40:55Z</time>
      </trkpt>
      <trkpt lat="32.53869" lon="-4.89737">
        <ele>2104</ele>
        <time>2010-08-05T02:40:55Z</time>
      </trkpt>
      <trkpt lat="32.53818" lon="-4.89628">
        <ele>2102</ele>
        <time>2010-08-05T02:40:55Z</time>
      </trkpt>
      <trkpt lat="32.54083" lon="-4.89768">
        <ele>2067</ele>
        <time>2010-08-05T02:40:55Z</time>
      </trkpt>
      <trkpt lat="32.54144" lon="-4.89872">
        <ele>2063</ele>
        <time>2010-08-05T02:40:55Z</time>
      </trkpt>
      <trkpt lat="32.54321" lon="-4.89868">
        <ele>2063</ele>
        <time>2010-08-05T02:40:55Z</time>
      </trkpt>
      <trkpt lat="32.54185" lon="-4.89889">
        <ele>2073</ele>
        <time>2010-08-05T02:40:55Z</time>
      </trkpt>
      <trkpt lat="32.54045" lon="-4.89663">
        <ele>2079</ele>
        <time>2010-08-05T02:40:55Z</time>
      </trkpt>
      <trkpt lat="32.54141" lon="-4.89668">
        <ele>2091</ele>
        <time>2010-08-05T02:40:55Z</time>
      </trkpt>
      <trkpt lat="32.54227" lon="-4.89392">
        <ele>2127</ele>
        <time>2010-08-05T02:40:55Z</time>
      </trkpt>
      <trkpt lat="32.54206" lon="-4.89284">
        <ele>2142</ele>
        <time>2010-08-05T02:40:55Z</time>
      </trkpt>
      <trkpt lat="32.54405" lon="-4.8927">
        <ele>2120</ele>
        <time>2010-08-05T02:40:55Z</time>
      </trkpt>
      <trkpt lat="32.54311" lon="-4.89301">
        <ele>2129</ele>
        <time>2010-08-05T02:40:55Z</time>
      </trkpt>
      <trkpt lat="32.54264" lon="-4.89268">
        <ele>2137</ele>
        <time>2010-08-05T02:40:55Z</time>
      </trkpt>
      <trkpt lat="32.54439" lon="-4.88939">
        <ele>2155</ele>
        <time>2010-08-05T02:40:55Z</time>
      </trkpt>
      <trkpt lat="32.54307" lon="-4.88859">
        <ele>2182</ele>
        <time>2010-08-05T02:40:55Z</time>
      </trkpt>
      <trkpt lat="32.54305" lon="-4.88683">
        <ele>2182</ele>
        <time>2010-08-05T02:40:55Z</time>
      </trkpt>
      <trkpt lat="32.54377" lon="-4.8881">
        <ele>2172</ele>
        <time>2010-08-05T02:40:55Z</time>
      </trkpt>
      <trkpt lat="32.54499" lon="-4.88776">
        <ele>2201</ele>
        <time>2010-08-05T02:40:55Z</time>
      </trkpt>
      <trkpt lat="32.54598" lon="-4.88884">
        <ele>2212</ele>
        <time>2010-08-05T02:40:55Z</time>
      </trkpt>
      <trkpt lat="32.54746" lon="-4.89226">
        <ele>2198</ele>
        <time>2010-08-05T02:40:55Z</time>
      </trkpt>
      <trkpt lat="32.54956" lon="-4.89292">
        <ele>2214</ele>
        <time>2010-08-05T02:40:55Z</time>
      </trkpt>
      <trkpt lat="32.55002" lon="-4.89207">
        <ele>2245</ele>
        <time>2010-08-05T02:40:55Z</time>
      </trkpt>
      <trkpt lat="32.55063" lon="-4.89239">
        <ele>2238</ele>
        <time>2010-08-05T02:40:55Z</time>
      </trkpt>
      <trkpt lat="32.55182" lon="-4.89406">
        <ele>2255</ele>
        <time>2010-08-05T02:40:55Z</time>
      </trkpt>
      <trkpt lat="32.55362" lon="-4.8948">
        <ele>2243</ele>
        <time>2010-08-05T02:40:55Z</time>
      </trkpt>
      <trkpt lat="32.55563" lon="-4.89691">
        <ele>2198</ele>
        <time>2010-08-05T02:40:55Z</time>
      </trkpt>
      <trkpt lat="32.56077" lon="-4.89988">
        <ele>2142</ele>
        <time>2010-08-05T02:40:55Z</time>
      </trkpt>
      <trkpt lat="32.56282" lon="-4.90158">
        <ele>2104</ele>
        <time>2010-08-05T02:40:55Z</time>
      </trkpt>
      <trkpt lat="32.56325" lon="-4.9002">
        <ele>2117</ele>
        <time>2010-08-05T02:40:55Z</time>
      </trkpt>
      <trkpt lat="32.56507" lon="-4.89901">
        <ele>2112</ele>
        <time>2010-08-05T02:40:55Z</time>
      </trkpt>
      <trkpt lat="32.56803" lon="-4.90085">
        <ele>2066</ele>
        <time>2010-08-05T02:40:55Z</time>
      </trkpt>
      <trkpt lat="32.56871" lon="-4.90059">
        <ele>2070</ele>
        <time>2010-08-05T02:40:55Z</time>
      </trkpt>
      <trkpt lat="32.57453" lon="-4.89509">
        <ele>2045</ele>
        <time>2010-08-05T02:40:55Z</time>
      </trkpt>
      <trkpt lat="32.57485" lon="-4.89277">
        <ele>2024</ele>
        <time>2010-08-05T02:40:55Z</time>
      </trkpt>
      <trkpt lat="32.57863" lon="-4.89128">
        <ele>2007</ele>
        <time>2010-08-05T02:40:55Z</time>
      </trkpt>
      <trkpt lat="32.5795" lon="-4.88968">
        <ele>2002</ele>
        <time>2010-08-05T02:40:55Z</time>
      </trkpt>
      <trkpt lat="32.5785" lon="-4.88813">
        <ele>1987</ele>
        <time>2010-08-05T02:40:55Z</time>
      </trkpt>
      <trkpt lat="32.58004" lon="-4.88741">
        <ele>1989</ele>
        <time>2010-08-05T02:40:55Z</time>
      </trkpt>
      <trkpt lat="32.58102" lon="-4.88444">
        <ele>1982</ele>
        <time>2010-08-05T02:40:55Z</time>
      </trkpt>
      <trkpt lat="32.5801" lon="-4.8837">
        <ele>1993</ele>
        <time>2010-08-05T02:40:55Z</time>
      </trkpt>
      <trkpt lat="32.57942" lon="-4.88156">
        <ele>1968</ele>
        <time>2010-08-05T02:40:55Z</time>
      </trkpt>
      <trkpt lat="32.57968" lon="-4.88125">
        <ele>1968</ele>
        <time>2010-08-05T02:40:55Z</time>
      </trkpt>
      <trkpt lat="32.58064" lon="-4.88154">
        <ele>1963</ele>
        <time>2010-08-05T02:40:55Z</time>
      </trkpt>
      <trkpt lat="32.58177" lon="-4.8807">
        <ele>1989</ele>
        <time>2010-08-05T02:40:55Z</time>
      </trkpt>
      <trkpt lat="32.58139" lon="-4.87357">
        <ele>2004</ele>
        <time>2010-08-05T02:40:55Z</time>
      </trkpt>
      <trkpt lat="32.58058" lon="-4.87073">
        <ele>2012</ele>
        <time>2010-08-05T02:40:55Z</time>
      </trkpt>
      <trkpt lat="32.58117" lon="-4.86895">
        <ele>2001</ele>
        <time>2010-08-05T02:40:55Z</time>
      </trkpt>
      <trkpt lat="32.5809" lon="-4.86825">
        <ele>2002</ele>
        <time>2010-08-05T02:40:55Z</time>
      </trkpt>
      <trkpt lat="32.58034" lon="-4.86808">
        <ele>2010</ele>
        <time>2010-08-05T02:40:55Z</time>
      </trkpt>
      <trkpt lat="32.58017" lon="-4.86701">
        <ele>2002</ele>
        <time>2010-08-05T02:40:55Z</time>
      </trkpt>
      <trkpt lat="32.58081" lon="-4.86586">
        <ele>1989</ele>
        <time>2010-08-05T02:40:55Z</time>
      </trkpt>
      <trkpt lat="32.58079" lon="-4.86419">
        <ele>2003</ele>
        <time>2010-08-05T02:40:55Z</time>
      </trkpt>
      <trkpt lat="32.58011" lon="-4.86179">
        <ele>2004</ele>
        <time>2010-08-05T02:40:55Z</time>
      </trkpt>
      <trkpt lat="32.57914" lon="-4.86132">
        <ele>2019</ele>
        <time>2010-08-05T02:40:55Z</time>
      </trkpt>
      <trkpt lat="32.57963" lon="-4.85946">
        <ele>2004</ele>
        <time>2010-08-05T02:40:55Z</time>
      </trkpt>
      <trkpt lat="32.57921" lon="-4.85596">
        <ele>2009</ele>
        <time>2010-08-05T02:40:55Z</time>
      </trkpt>
      <trkpt lat="32.58073" lon="-4.85387">
        <ele>1998</ele>
        <time>2010-08-05T02:40:55Z</time>
      </trkpt>
      <trkpt lat="32.58015" lon="-4.85347">
        <ele>1999</ele>
        <time>2010-08-05T02:40:55Z</time>
      </trkpt>
      <trkpt lat="32.58143" lon="-4.85274">
        <ele>1990</ele>
        <time>2010-08-05T02:40:55Z</time>
      </trkpt>
      <trkpt lat="32.58241" lon="-4.85034">
        <ele>1980</ele>
        <time>2010-08-05T02:40:55Z</time>
      </trkpt>
      <trkpt lat="32.58395" lon="-4.85011">
        <ele>1962</ele>
        <time>2010-08-05T02:40:55Z</time>
      </trkpt>
      <trkpt lat="32.58473" lon="-4.85058">
        <ele>1942</ele>
        <time>2010-08-05T02:40:55Z</time>
      </trkpt>
      <trkpt lat="32.58556" lon="-4.85004">
        <ele>1930</ele>
        <time>2010-08-05T02:40:55Z</time>
      </trkpt>
      <trkpt lat="32.58625" lon="-4.85103">
        <ele>1914</ele>
        <time>2010-08-05T02:40:55Z</time>
      </trkpt>
      <trkpt lat="32.58796" lon="-4.85162">
        <ele>1907</ele>
        <time>2010-08-05T02:40:55Z</time>
      </trkpt>
      <trkpt lat="32.59024" lon="-4.85042">
        <ele>1883</ele>
        <time>2010-08-05T02:40:55Z</time>
      </trkpt>
      <trkpt lat="32.5906" lon="-4.84951">
        <ele>1880</ele>
        <time>2010-08-05T02:40:55Z</time>
      </trkpt>
      <trkpt lat="32.59034" lon="-4.84803">
        <ele>1879</ele>
        <time>2010-08-05T02:40:55Z</time>
      </trkpt>
      <trkpt lat="32.59098" lon="-4.84622">
        <ele>1867</ele>
        <time>2010-08-05T02:40:55Z</time>
      </trkpt>
      <trkpt lat="32.59298" lon="-4.84359">
        <ele>1819</ele>
        <time>2010-08-05T02:40:55Z</time>
      </trkpt>
      <trkpt lat="32.59228" lon="-4.8429">
        <ele>1822</ele>
        <time>2010-08-05T02:40:55Z</time>
      </trkpt>
      <trkpt lat="32.59352" lon="-4.84092">
        <ele>1832</ele>
        <time>2010-08-05T02:40:55Z</time>
      </trkpt>
      <trkpt lat="32.59427" lon="-4.8382">
        <ele>1836</ele>
        <time>2010-08-05T02:40:55Z</time>
      </trkpt>
      <trkpt lat="32.59571" lon="-4.83609">
        <ele>1814</ele>
        <time>2010-08-05T02:40:55Z</time>
      </trkpt>
      <trkpt lat="32.59548" lon="-4.83516">
        <ele>1811</ele>
        <time>2010-08-05T02:40:55Z</time>
      </trkpt>
      <trkpt lat="32.59626" lon="-4.83344">
        <ele>1819</ele>
        <time>2010-08-05T02:40:55Z</time>
      </trkpt>
      <trkpt lat="32.59671" lon="-4.83061">
        <ele>1819</ele>
        <time>2010-08-05T02:40:55Z</time>
      </trkpt>
      <trkpt lat="32.59621" lon="-4.82964">
        <ele>1825</ele>
        <time>2010-08-05T02:40:55Z</time>
      </trkpt>
      <trkpt lat="32.59793" lon="-4.82728">
        <ele>1815</ele>
        <time>2010-08-05T02:40:55Z</time>
      </trkpt>
      <trkpt lat="32.59959" lon="-4.82594">
        <ele>1795</ele>
        <time>2010-08-05T02:40:55Z</time>
      </trkpt>
      <trkpt lat="32.59876" lon="-4.82419">
        <ele>1793</ele>
        <time>2010-08-05T02:40:55Z</time>
      </trkpt>
      <trkpt lat="32.59901" lon="-4.82304">
        <ele>1801</ele>
        <time>2010-08-05T02:40:55Z</time>
      </trkpt>
      <trkpt lat="32.60288" lon="-4.82007">
        <ele>1808</ele>
        <time>2010-08-05T02:40:55Z</time>
      </trkpt>
      <trkpt lat="32.6048" lon="-4.81707">
        <ele>1807</ele>
        <time>2010-08-05T02:40:55Z</time>
      </trkpt>
      <trkpt lat="32.60538" lon="-4.81402">
        <ele>1802</ele>
        <time>2010-08-05T02:40:55Z</time>
      </trkpt>
      <trkpt lat="32.60735" lon="-4.8117">
        <ele>1801</ele>
        <time>2010-08-05T02:40:55Z</time>
      </trkpt>
      <trkpt lat="32.60913" lon="-4.80856">
        <ele>1787</ele>
        <time>2010-08-05T02:40:55Z</time>
      </trkpt>
      <trkpt lat="32.61167" lon="-4.80601">
        <ele>1763</ele>
        <time>2010-08-05T02:40:55Z</time>
      </trkpt>
      <trkpt lat="32.61493" lon="-4.80013">
        <ele>1726</ele>
        <time>2010-08-05T02:40:55Z</time>
      </trkpt>
      <trkpt lat="32.61767" lon="-4.79772">
        <ele>1719</ele>
        <time>2010-08-05T02:40:55Z</time>
      </trkpt>
      <trkpt lat="32.62179" lon="-4.79292">
        <ele>1690</ele>
        <time>2010-08-05T02:40:55Z</time>
      </trkpt>
      <trkpt lat="32.631" lon="-4.78387">
        <ele>1650</ele>
        <time>2010-08-05T02:40:55Z</time>
      </trkpt>
      <trkpt lat="32.63491" lon="-4.77941">
        <ele>1618</ele>
        <time>2010-08-05T02:40:55Z</time>
      </trkpt>
      <trkpt lat="32.63568" lon="-4.77815">
        <ele>1602</ele>
        <time>2010-08-05T02:40:55Z</time>
      </trkpt>
      <trkpt lat="32.63569" lon="-4.77509">
        <ele>1593</ele>
        <time>2010-08-05T02:40:55Z</time>
      </trkpt>
      <trkpt lat="32.64238" lon="-4.76445">
        <ele>1575</ele>
        <time>2010-08-05T02:40:55Z</time>
      </trkpt>
      <trkpt lat="32.64619" lon="-4.76278">
        <ele>1543</ele>
        <time>2010-08-05T02:40:55Z</time>
      </trkpt>
      <trkpt lat="32.65277" lon="-4.76241">
        <ele>1535</ele>
        <time>2010-08-05T02:40:55Z</time>
      </trkpt>
      <trkpt lat="32.65511" lon="-4.76173">
        <ele>1536</ele>
        <time>2010-08-05T02:40:55Z</time>
      </trkpt>
      <trkpt lat="32.65875" lon="-4.76004">
        <ele>1524</ele>
        <time>2010-08-05T02:40:55Z</time>
      </trkpt>
      <trkpt lat="32.66323" lon="-4.7585">
        <ele>1491</ele>
        <time>2010-08-05T02:40:55Z</time>
      </trkpt>
      <trkpt lat="32.6643" lon="-4.75854">
        <ele>1492</ele>
        <time>2010-08-05T02:40:55Z</time>
      </trkpt>
      <trkpt lat="32.66616" lon="-4.7573">
        <ele>1499</ele>
        <time>2010-08-05T02:40:55Z</time>
      </trkpt>
      <trkpt lat="32.66941" lon="-4.75628">
        <ele>1493</ele>
        <time>2010-08-05T02:40:55Z</time>
      </trkpt>
      <trkpt lat="32.67293" lon="-4.75458">
        <ele>1490</ele>
        <time>2010-08-05T02:40:55Z</time>
      </trkpt>
      <trkpt lat="32.67578" lon="-4.7522">
        <ele>1482</ele>
        <time>2010-08-05T02:40:55Z</time>
      </trkpt>
      <trkpt lat="32.68218" lon="-4.74959">
        <ele>1468</ele>
        <time>2010-08-05T02:40:55Z</time>
      </trkpt>
      <trkpt lat="32.68135" lon="-4.74322">
        <ele>1480</ele>
        <time>2010-08-05T02:40:55Z</time>
      </trkpt>
      <trkpt lat="32.68355" lon="-4.74306">
        <ele>1468</ele>
        <time>2010-08-05T02:40:55Z</time>
      </trkpt>
      <trkpt lat="32.68526" lon="-4.74361">
        <ele>1461</ele>
        <time>2010-08-05T02:40:55Z</time>
      </trkpt>
      <trkpt lat="32.68768" lon="-4.74553">
        <ele>1446</ele>
        <time>2010-08-05T02:40:55Z</time>
      </trkpt>
      <trkpt lat="32.68582" lon="-4.74379">
        <ele>1459</ele>
        <time>2010-08-05T02:40:55Z</time>
      </trkpt>
    </trkseg>
  </trk>
</gpx>